GFSFLT1_sfc_temp_000.txt.gz
Temp
55 55 56 57 59 59 59 59 58 58 57 57 57 55 54 54 54 55 58 58 57 56 52 51 50 49 48 48 48 47 47 46
55 55 56 57 56 57 58 58 58 57 54 54 55 54 55 54 53 54 54 54 53 51 50 49 49 48 46 47 46 45 46 44
55 55 55 55 54 56 55 56 56 57 55 53 55 54 53 53 53 51 51 51 51 52 49 47 47 47 45 44 44 44 44 43
54 54 52 53 54 54 56 55 56 55 55 54 52 52 51 50 49 48 48 49 49 49 48 47 46 45 44 42 42 42 40 41
54 53 54 53 52 53 55 56 55 55 54 54 53 50 48 46 46 46 47 48 49 49 48 46 45 44 44 43 43 41 41 37
55 54 54 52 54 53 52 54 55 53 52 51 48 46 45 45 45 46 47 47 48 47 47 46 45 43 42 42 40 39 39 37
52 55 56 54 52 51 51 51 49 49 49 48 47 46 45 46 46 46 46 46 45 46 46 43 42 41 41 40 39 38 37 37
50 53 53 49 48 49 50 48 47 48 48 48 47 48 47 47 46 44 44 45 44 43 42 41 41 41 41 40 39 38 36 35
50 47 47 47 48 48 48 48 47 47 47 47 46 46 45 45 44 44 45 42 41 41 41 41 41 44 41 43 41 37 36 35
47 47 47 47 47 46 46 47 46 46 45 44 44 44 44 43 43 42 41 41 43 40 40 42 42 40 41 40 37 39 36 35
47 47 47 46 46 45 47 46 44 44 43 43 43 42 42 41 39 39 39 40 42 43 44 41 42 41 42 40 37 36 35 33
45 45 45 46 48 48 47 44 44 43 42 42 41 40 40 40 39 38 38 40 41 41 42 42 39 39 38 36 35 34 34 33
45 45 47 47 45 45 43 43 43 42 41 41 40 40 39 38 38 38 38 39 39 40 39 39 38 37 36 34 34 33 32 32
44 44 46 46 44 42 44 45 42 41 40 39 38 38 37 37 37 37 38 37 38 38 38 37 36 36 35 34 33 33 31 31
43 43 44 43 43 45 44 42 41 40 39 38 38 37 37 36 36 36 36 37 37 36 36 36 36 36 35 33 32 31 31 31
43 42 41 44 44 42 42 40 40 40 39 38 38 37 37 37 36 36 36 36 39 36 35 34 34 35 34 32 32 31 30 29
45 44 46 44 42 41 41 40 40 40 38 38 38 38 37 36 35 35 35 38 34 33 33 33 33 35 36 37 35 30 30 29
45 46 44 43 41 41 40 40 40 38 38 38 38 37 36 35 35 34 34 33 33 33 32 32 29 30 35 35 32 28 27 26
44 43 42 41 40 40 39 38 38 37 37 37 37 36 35 34 33 33 33 33 32 30 29 29 29 32 34 32 31 26 26 26

GFSFLT1_sfc_temp_003.txt.gz
Temp
61 63 65 67 69 68 65 65 59 58 64 65 65 64 63 63 64 64 64 65 63 64 63 62 64 64 62 63 60 61 60 58
61 61 63 65 66 65 65 64 65 66 65 65 65 65 64 64 65 63 63 63 64 63 64 63 63 62 60 60 62 58 60 58
60 62 65 67 66 68 67 67 67 69 68 67 66 65 64 64 63 61 62 61 63 63 62 63 62 62 59 58 58 58 58 55
60 61 63 63 64 64 66 67 67 67 65 65 64 64 63 64 62 63 62 62 64 64 62 62 61 60 59 57 56 55 54 54
62 61 61 62 63 64 66 65 65 63 62 63 61 62 61 59 60 62 63 61 62 63 61 60 59 59 56 55 56 54 53 50
61 62 63 64 63 62 61 61 60 60 61 60 61 59 59 61 61 58 58 59 59 59 59 57 57 56 55 54 53 53 53 51
63 63 63 61 61 59 59 59 58 59 59 58 58 57 57 58 57 57 58 58 59 58 57 55 55 54 54 53 51 51 51 51
60 62 62 59 58 57 58 58 57 58 57 57 56 56 56 55 55 55 54 56 57 57 55 54 54 53 51 53 51 50 50 50
60 59 58 57 56 56 57 57 56 56 56 56 56 55 56 56 54 54 53 53 53 54 53 52 52 52 52 50 51 51 50 49
57 56 56 56 56 55 55 56 56 56 54 54 53 53 52 52 51 52 52 51 52 51 51 52 51 51 51 51 50 49 48 47
55 55 54 55 55 54 54 56 55 54 54 53 52 52 52 52 51 51 51 51 51 51 51 50 50 51 51 49 49 48 46 47
54 53 54 54 54 54 54 53 54 53 53 51 51 51 51 51 50 50 50 49 50 50 50 50 49 48 49 48 47 46 45 45
53 53 52 53 53 54 52 54 54 52 51 50 50 50 50 49 49 49 48 48 48 48 48 48 48 48 47 47 46 46 45 43
52 51 52 52 52 52 54 53 51 51 51 51 50 49 48 48 47 47 47 46 47 47 47 45 46 46 47 45 44 43 43 43
52 51 52 52 52 52 53 50 50 50 51 50 48 48 47 47 46 46 45 45 45 46 44 45 45 45 45 44 43 43 42 41
49 49 51 52 50 51 51 50 50 49 49 48 48 47 47 47 46 45 45 45 45 44 44 44 43 43 43 43 42 41 40 39
50 50 51 51 51 51 50 49 49 48 47 47 48 46 46 46 45 44 44 45 45 44 43 42 41 41 36 36 37 39 37 36
51 50 51 51 51 50 50 50 49 47 46 47 46 45 45 45 44 44 44 44 44 43 41 41 40 40 35 33 32 37 35 34
51 52 52 52 52 50 49 49 47 46 46 46 46 45 44 44 43 43 43 44 43 43 41 40 39 37 33 33 32 35 34 33

GFSFLT1_sfc_temp_006.txt.gz
Temp
76 79 81 82 80 79 76 77 75 75 79 74 76 76 75 75 75 74 72 74 71 74 73 70 72 72 71 70 67 69 67 66
75 75 77 79 78 76 76 74 75 79 78 76 76 76 75 74 74 71 70 71 71 70 73 71 70 69 67 66 67 66 66 66
71 73 74 75 75 76 76 76 77 78 79 78 78 78 75 73 73 70 71 70 71 71 69 69 69 68 67 65 63 63 65 64
70 72 73 75 75 75 76 77 77 76 74 76 75 74 73 75 74 74 71 69 70 70 68 68 67 67 65 64 62 60 59 61
73 73 73 74 74 76 77 76 74 72 73 72 70 71 70 68 70 71 70 69 68 69 68 66 65 65 64 63 63 59 58 56
72 73 74 75 73 72 72 72 71 71 71 71 70 68 69 69 68 66 67 68 68 68 67 65 64 65 63 61 59 58 59 56
73 74 74 73 72 70 70 70 69 69 68 67 65 64 65 65 64 64 65 66 66 66 66 64 63 63 60 60 59 56 55 55
71 71 71 70 68 68 68 68 66 67 66 66 65 64 63 63 62 62 60 62 62 62 62 61 62 61 60 58 56 54 54 54
71 72 71 70 67 67 67 67 66 66 65 64 65 64 64 64 61 60 60 59 60 60 60 61 60 58 56 53 55 55 54 54
71 70 69 67 66 65 66 67 66 65 64 62 62 62 60 59 59 60 59 59 59 59 58 58 56 55 53 56 56 54 54 53
69 68 66 67 66 66 65 66 65 61 61 62 61 60 60 60 59 57 57 57 58 58 57 56 54 54 56 56 55 55 53 52
67 66 66 66 65 64 64 64 61 59 63 60 60 60 59 59 58 57 56 56 56 56 56 55 54 54 55 53 53 53 51 51
67 65 64 63 63 63 63 63 62 63 61 60 59 60 58 57 57 56 55 54 55 54 54 54 54 54 53 52 52 52 51 50
64 63 62 62 62 62 61 62 62 62 61 61 61 59 57 56 56 55 55 54 53 53 54 52 52 52 52 52 52 51 50 49
63 62 62 62 62 61 63 59 61 61 61 61 58 57 56 55 55 54 53 53 52 53 53 52 51 52 52 51 50 49 49 48
61 61 62 63 62 62 61 61 60 60 58 59 57 56 56 55 54 53 53 52 52 53 51 51 51 50 50 48 47 47 47 45
61 62 63 62 62 61 61 60 59 59 58 57 57 55 54 53 53 52 52 52 52 52 51 49 49 50 36 35 38 45 45 43
61 62 62 62 61 61 60 60 59 57 56 56 54 54 52 53 53 53 52 51 52 51 51 49 48 47 35 34 34 43 43 42
63 63 63 60 63 61 62 61 58 56 55 54 54 53 52 53 53 52 52 51 50 50 50 49 47 44 34 33 33 42 42 41

GFSFLT1_sfc_temp_012.txt.gz
Temp
81 81 82 81 78 76 75 74 71 68 72 70 70 69 69 69 68 68 68 68 67 64 64 63 63 62 61 59 58 58 57 55
81 80 80 79 76 76 75 73 71 72 73 70 68 66 67 67 67 67 66 66 67 65 63 62 62 60 58 59 57 55 54 55
79 80 79 77 76 75 75 75 74 75 74 71 70 69 67 67 66 66 66 65 65 65 61 60 60 58 57 56 54 52 53 53
77 78 77 76 73 73 75 71 75 74 71 72 69 68 65 66 65 64 65 65 66 64 61 59 58 57 55 54 53 52 49 50
77 76 76 71 68 72 75 76 73 73 73 68 66 65 62 62 62 62 63 62 61 62 60 57 55 55 54 53 57 51 50 46
75 75 72 72 69 73 73 72 72 71 70 68 65 63 62 62 59 59 59 59 60 60 58 55 53 53 53 53 52 51 49 46
77 73 73 73 73 71 69 70 70 69 66 64 61 59 59 57 57 56 55 56 56 57 57 54 53 53 53 52 50 48 46 45
75 71 73 73 70 68 68 69 67 66 64 62 60 59 59 56 57 55 54 53 53 53 53 53 52 53 52 51 48 47 46 43
74 74 72 70 68 68 68 68 66 65 62 61 61 61 59 58 56 56 54 53 52 53 52 53 53 53 51 50 47 46 46 44
73 73 71 69 68 67 66 68 67 64 62 60 58 58 57 56 57 57 54 53 56 52 52 52 52 52 51 48 46 46 45 45
73 73 71 70 69 69 66 68 65 63 61 59 59 58 57 57 56 54 53 52 53 52 52 51 51 51 50 49 48 48 46 44
72 73 72 71 69 68 66 67 65 62 61 59 57 57 57 57 55 54 53 52 52 52 52 51 50 50 50 48 47 47 45 44
73 73 72 70 68 68 66 65 64 62 61 59 58 58 58 56 55 54 53 52 52 51 51 51 51 50 48 47 46 46 44 41
74 73 71 69 67 66 65 64 64 63 63 60 59 58 56 55 54 54 53 52 51 50 51 50 50 49 48 47 46 46 44 43
74 73 70 68 67 66 65 63 62 63 62 61 58 56 57 55 54 53 52 52 50 49 49 50 49 49 49 48 47 43 42 43
74 72 70 68 66 65 65 63 62 61 58 60 57 56 56 56 53 53 52 51 50 50 49 49 48 48 49 42 42 41 39 39
73 72 69 67 67 65 65 63 61 60 58 57 59 57 57 53 52 51 51 50 50 49 48 48 47 50 37 37 39 36 39 39
71 70 70 68 67 65 63 62 61 59 57 58 57 55 52 51 52 52 50 49 49 48 48 47 46 38 37 37 35 35 36 36
70 69 68 68 68 66 64 64 60 58 57 56 53 52 51 53 52 51 50 49 48 47 47 47 46 39 36 36 35 32 34 35

GFSFLT1_sfc_temp_015.txt.gz
Temp
72 71 72 70 70 67 68 66 64 64 63 63 62 60 59 59 59 60 62 61 62 58 58 57 57 56 54 54 53 53 51 51
72 71 71 68 66 69 67 65 64 63 63 61 59 58 58 58 60 61 60 60 60 58 57 57 55 54 52 53 51 50 50 48
71 68 69 69 65 69 67 67 65 66 70 61 61 62 58 59 58 59 60 60 60 60 55 54 53 53 52 51 49 48 47 47
68 69 68 68 67 68 68 67 68 67 67 64 61 59 57 56 56 56 57 58 58 56 53 51 50 50 49 48 48 48 45 46
69 65 64 67 66 70 70 71 69 65 64 63 62 56 56 54 54 54 54 56 55 55 53 50 49 48 48 47 52 46 45 41
67 65 64 66 68 65 69 69 67 63 62 60 59 56 54 52 52 51 53 53 53 53 52 50 49 48 47 46 44 44 43 41
67 65 66 67 65 64 68 67 62 59 58 56 55 54 51 51 50 49 50 50 50 51 53 49 49 47 46 45 44 44 42 42
63 63 64 65 60 61 65 63 58 58 55 54 53 52 52 51 49 48 49 48 48 48 49 47 47 47 47 46 44 43 42 40
63 66 68 64 62 64 60 60 58 57 55 54 54 53 50 51 50 49 48 47 47 48 47 48 48 49 46 45 43 42 42 40
65 66 65 63 63 59 57 59 58 57 54 53 52 52 51 50 50 51 48 48 52 48 47 47 47 47 46 45 43 42 42 41
61 63 62 62 61 59 57 57 58 56 53 52 52 51 51 51 49 49 50 50 49 47 47 46 46 46 45 45 42 43 43 43
61 62 63 62 62 59 57 56 56 54 52 52 51 51 51 51 50 49 50 48 51 48 47 47 47 46 45 43 42 43 42 39
63 63 62 61 60 60 58 55 57 54 53 52 51 52 53 51 51 51 49 49 48 47 47 46 47 46 45 44 43 42 41 40
64 63 62 62 60 59 59 57 56 55 55 52 51 53 54 53 52 51 49 48 47 49 47 46 46 46 45 44 43 42 41 41
64 64 62 62 61 60 60 56 56 56 55 53 51 53 54 53 51 50 48 48 48 48 47 47 46 47 47 44 42 40 40 40
63 61 58 62 61 60 58 55 55 55 53 54 53 53 53 52 50 50 49 48 48 48 46 46 46 46 46 41 40 38 38 37
63 61 60 60 58 56 57 55 54 54 54 54 54 52 51 49 49 49 49 48 47 47 45 45 45 47 39 40 38 35 36 36
62 61 59 59 57 58 56 55 54 53 51 53 52 49 48 47 48 49 48 47 46 45 45 45 44 40 38 38 37 34 34 33
61 61 61 59 57 56 54 55 53 51 52 49 48 47 47 48 47 48 46 46 45 44 44 44 40 39 37 37 36 32 32 32

GFSFLT1_sfc_temp_018.txt.gz
Temp
68 68 69 68 66 64 65 63 61 61 61 59 58 57 56 57 57 57 59 58 58 56 55 54 54 53 52 51 50 50 49 48
69 68 68 66 61 65 65 62 61 62 61 59 55 54 55 55 57 58 57 57 57 55 53 53 52 52 50 50 48 48 47 46
66 66 66 65 64 65 64 64 62 63 64 60 57 58 54 55 55 56 57 56 56 55 52 51 50 50 49 48 47 46 44 44
64 65 64 65 64 65 65 65 63 64 62 59 56 55 54 53 52 53 54 55 55 52 51 49 48 47 46 45 45 45 43 42
66 64 63 64 64 67 66 66 64 64 63 61 60 59 56 52 51 51 52 53 52 52 50 48 47 46 45 44 46 42 42 40
65 64 65 65 64 63 65 64 61 63 62 63 59 52 52 50 49 49 49 49 50 51 49 48 46 45 44 43 43 42 42 40
61 64 66 64 63 63 62 66 64 64 60 56 57 53 51 49 47 47 47 47 47 48 49 47 45 44 44 43 42 42 40 40
60 61 63 63 60 59 64 64 60 59 58 53 53 52 51 50 48 47 47 46 45 45 46 45 46 45 45 43 42 41 40 39
62 62 62 62 60 61 62 62 58 56 54 51 51 52 50 49 49 47 47 46 46 47 48 48 46 47 46 43 42 41 40 39
60 60 62 60 59 58 57 57 57 56 52 51 50 50 51 50 49 48 46 46 49 49 47 48 45 45 44 43 41 41 40 39
58 61 59 60 60 58 56 58 56 53 52 51 51 51 51 50 48 47 49 49 49 48 48 46 45 45 44 43 41 41 40 38
60 59 60 60 59 59 58 58 55 53 52 51 50 49 49 48 49 49 48 47 49 49 48 46 47 45 45 43 43 42 40 39
61 60 59 59 60 58 57 56 55 54 54 52 51 51 51 49 48 47 48 48 48 48 46 47 46 45 44 43 42 42 40 39
58 59 59 59 60 59 57 56 56 55 54 52 50 50 50 51 50 49 47 48 47 47 47 45 45 44 44 44 42 41 40 39
58 58 59 60 60 59 59 56 54 54 54 52 50 51 53 52 49 46 45 45 44 45 46 46 46 45 45 44 41 38 38 39
59 57 55 57 56 57 58 52 53 53 52 51 51 53 53 50 45 45 45 44 45 46 45 46 46 45 45 41 40 38 37 36
58 59 56 57 56 55 54 52 53 53 51 51 54 52 49 47 44 44 45 46 47 45 45 44 43 46 42 40 38 35 36 35
57 56 55 54 54 55 53 52 52 51 50 54 51 49 46 46 46 44 45 45 45 45 44 43 41 41 40 40 38 34 36 34
55 55 56 54 53 55 53 52 50 48 48 49 48 46 46 46 44 44 43 44 43 42 42 42 40 41 38 38 37 34 33 33

GFSFLT1_sfc_temp_024.txt.gz
Temp
62 61 61 61 61 60 61 60 59 58 57 55 54 55 55 55 55 55 56 55 55 53 51 51 51 49 49 48 47 45 45 45
62 62 61 60 59 59 59 58 57 59 56 53 53 53 53 53 54 55 55 54 53 51 50 49 49 48 47 47 45 45 43 42
60 60 59 60 59 60 59 59 58 60 60 55 55 53 51 52 52 52 53 52 52 51 48 47 47 46 45 45 45 42 41 41
60 60 59 60 59 60 60 60 60 60 58 54 52 52 52 51 49 49 50 51 50 49 47 46 45 45 44 43 43 44 41 42
61 61 59 58 59 61 61 61 60 59 57 56 57 54 52 50 49 48 47 49 48 48 47 46 45 44 43 45 45 43 42 40
60 61 62 61 60 60 60 60 60 60 59 58 55 50 49 48 47 46 46 46 47 47 46 46 44 44 45 45 45 42 42 39
60 61 61 60 58 58 58 58 59 58 58 56 55 52 49 47 45 44 44 44 44 45 46 44 44 45 46 46 45 42 41 40
56 57 59 59 57 59 59 58 58 57 57 55 54 53 53 51 48 46 44 43 43 43 44 45 45 47 45 46 44 41 40 39
58 60 60 60 59 59 60 59 59 58 58 56 55 54 54 53 51 49 47 48 45 44 47 49 47 48 47 45 43 41 40 39
57 59 60 59 59 60 60 60 60 56 56 53 52 52 51 50 51 50 47 47 48 48 48 48 47 47 46 44 43 42 40 38
54 56 58 59 60 61 59 60 59 55 53 52 51 51 51 49 49 47 48 48 48 48 47 47 46 45 45 44 42 40 38 37
53 55 56 58 58 57 57 56 54 51 50 50 49 49 49 49 49 48 49 49 49 48 47 46 46 45 45 43 41 39 38 38
53 54 55 55 56 54 53 51 51 51 50 49 49 47 48 48 48 49 48 49 48 48 47 46 46 45 44 42 40 40 38 37
53 53 53 53 52 51 52 51 50 49 49 49 48 49 48 49 49 49 49 48 47 47 46 46 46 45 44 41 40 39 37 37
52 51 51 51 52 52 51 50 49 48 49 48 48 48 49 49 49 46 45 47 46 46 46 46 46 45 44 43 41 38 37 37
51 51 51 51 51 51 51 49 48 48 48 48 47 47 48 47 44 46 46 45 46 46 45 45 44 42 44 41 39 38 36 35
51 52 52 52 51 50 49 48 47 48 47 47 48 46 45 44 43 44 42 44 44 43 43 42 41 44 42 41 40 36 36 34
47 47 48 48 48 49 48 47 46 46 46 46 45 44 42 43 44 44 43 43 43 42 42 41 40 40 40 40 39 35 34 35
44 43 44 44 45 46 45 45 44 43 42 42 42 42 43 44 44 43 42 42 42 41 40 40 39 40 39 39 38 34 33 33

GFSFLT1_sfc_temp_027.txt.gz
Temp
67 67 68 69 69 69 69 69 68 67 68 67 65 67 67 65 66 69 67 67 66 66 64 63 65 64 63 63 62 61 62 62
67 68 69 69 68 68 69 67 67 67 66 65 64 65 64 64 66 66 65 66 65 64 64 62 63 64 62 61 60 59 58 59
66 67 67 67 69 68 69 69 68 67 69 68 67 66 64 63 64 64 65 64 64 63 62 62 62 61 59 59 59 58 58 57
65 65 66 67 67 67 68 69 68 68 68 65 62 60 62 62 63 63 63 62 63 62 60 61 60 60 59 58 58 57 55 54
68 66 66 66 67 68 69 68 67 67 65 66 64 64 63 65 63 62 62 60 60 61 60 59 58 58 57 57 58 57 56 54
68 68 69 69 69 67 68 68 67 67 66 66 66 63 63 62 58 55 56 58 59 59 59 58 57 58 57 55 53 55 55 50
69 70 71 70 68 68 66 67 67 67 65 64 64 61 59 59 58 57 57 57 57 57 58 57 57 57 53 49 51 51 51 55
67 67 67 69 66 66 66 67 67 65 64 63 62 60 58 59 56 52 52 53 54 54 56 55 56 55 55 54 52 52 54 54
68 68 69 68 66 67 67 66 67 65 64 63 61 59 57 58 58 55 52 54 54 55 55 56 54 51 55 55 53 55 53 53
66 69 69 68 67 66 66 66 67 65 65 65 62 61 59 58 56 55 54 53 54 52 55 55 50 52 51 53 54 53 52 52
62 65 66 67 68 68 66 67 67 67 66 65 62 59 58 57 55 54 54 53 54 54 54 49 52 52 53 51 51 53 51 52
64 64 66 67 67 67 65 66 68 67 64 62 59 57 57 57 55 55 52 50 50 51 48 53 51 50 53 52 52 51 50 51
65 64 64 64 65 65 65 65 65 62 58 60 59 57 56 55 54 51 50 48 51 50 51 50 53 51 52 52 50 51 49 49
63 62 62 62 62 61 62 61 62 59 58 58 57 56 55 55 54 52 51 51 49 51 53 53 52 52 52 50 48 49 48 49
61 61 60 61 61 62 61 60 59 58 58 58 56 55 55 55 55 53 50 51 49 52 52 53 51 51 49 46 47 49 48 49
59 60 60 60 60 60 60 59 57 57 56 57 56 55 55 55 52 48 48 47 48 48 46 48 47 45 45 44 46 48 48 48
55 56 57 57 58 59 58 58 56 55 55 55 55 54 53 50 48 46 46 47 46 50 46 45 46 46 40 40 42 48 47 46
51 51 51 53 54 55 56 55 54 53 53 53 52 52 50 47 46 46 44 46 46 45 45 45 44 45 40 40 39 46 46 46
48 50 50 50 51 51 52 53 52 51 50 49 50 50 49 48 47 44 44 44 43 43 43 46 45 43 39 39 38 45 46 46

GFSFLT1_sfc_temp_030.txt.gz
Temp
73 75 77 77 76 76 75 75 74 74 77 77 79 78 78 77 78 79 76 78 75 75 75 72 74 74 72 73 70 72 73 72
76 76 77 76 77 76 76 75 75 76 77 75 75 74 76 76 77 77 75 76 74 74 74 72 73 73 72 70 70 66 68 69
75 76 76 75 76 76 76 77 77 77 79 78 78 77 77 76 75 74 75 74 75 73 72 72 72 71 68 68 67 67 69 67
76 75 75 76 75 76 77 78 78 77 78 79 77 76 74 72 70 70 73 73 74 73 71 72 70 70 68 67 67 65 64 65
79 77 77 76 77 78 78 79 79 78 78 78 73 74 72 71 68 72 74 71 72 73 72 70 68 69 68 67 67 65 64 59
79 80 81 80 79 77 78 79 79 79 77 76 75 74 76 77 71 72 70 68 67 71 70 68 67 68 66 65 62 61 63 63
81 82 83 82 81 79 77 77 78 78 77 75 75 74 74 71 70 67 65 61 61 65 67 66 66 66 63 61 56 57 62 61
80 81 82 81 80 78 77 77 77 77 76 74 74 73 71 67 66 63 61 63 59 62 63 61 58 58 59 58 54 54 59 61
81 82 82 82 80 79 78 77 76 78 75 74 73 71 69 67 65 60 58 57 55 60 54 57 60 56 57 52 53 56 60 60
81 82 83 81 80 78 77 76 75 77 76 74 72 71 69 66 63 61 60 59 61 56 53 55 57 55 53 51 56 59 57 58
77 78 80 81 81 81 78 78 75 76 76 74 73 71 69 63 62 59 57 59 61 59 55 55 50 50 50 54 59 58 58 57
76 75 78 79 79 79 77 76 74 76 78 75 72 70 64 61 61 60 61 63 61 57 52 48 49 51 56 55 56 58 53 54
76 76 75 76 76 77 77 77 77 77 77 75 72 66 64 63 63 62 61 61 54 50 49 50 53 58 57 54 56 54 51 50
75 74 74 75 74 74 74 74 75 76 73 70 69 67 64 62 60 58 56 52 49 50 51 51 53 53 55 53 52 48 47 51
75 74 73 73 73 72 72 71 72 71 70 69 68 65 65 64 61 58 58 56 52 52 51 53 51 55 56 50 48 48 51 54
70 72 72 72 70 70 70 69 67 67 67 67 66 65 65 64 62 62 61 57 54 50 50 49 53 51 51 48 48 47 52 53
67 68 68 68 68 70 67 67 65 66 65 64 63 62 62 60 58 55 52 50 50 47 50 46 48 49 40 40 41 47 51 52
63 63 64 65 65 66 65 64 64 63 62 61 60 60 58 57 56 54 50 48 47 46 47 48 47 48 41 40 39 45 46 49
61 62 62 63 64 63 63 63 62 60 59 58 58 58 56 55 54 51 46 47 46 47 47 48 48 49 40 39 38 41 47 50

GFSFLT1_sfc_temp_033.txt.gz
Temp
76 74 76 76 73 73 73 73 73 73 74 76 79 79 79 81 78 79 79 80 78 77 79 76 75 76 75 75 73 73 73 73
76 77 77 77 76 75 75 75 75 76 74 76 77 76 78 78 77 78 79 79 78 76 78 74 74 75 74 73 72 69 69 70
77 76 78 77 76 77 77 77 77 78 79 80 79 79 80 80 76 78 79 78 78 76 76 74 73 75 72 70 70 69 70 69
78 77 77 77 77 77 79 79 79 79 81 82 81 81 80 79 77 75 76 76 77 77 75 74 73 74 70 69 68 68 67 67
81 79 78 78 78 79 80 81 81 81 81 81 78 77 76 78 77 77 75 74 74 77 76 74 73 73 71 69 70 68 66 65
82 81 81 81 80 79 79 81 82 82 81 79 79 76 78 79 78 74 72 75 74 75 75 72 71 70 70 68 67 65 64 59
85 86 85 84 83 81 80 80 82 82 81 79 78 76 76 78 76 73 73 72 71 71 72 68 66 63 66 67 65 60 56 59
85 85 85 85 83 81 81 81 80 81 80 79 77 77 77 76 74 72 71 68 63 61 61 60 58 58 53 53 54 53 53 54
85 86 86 86 85 83 81 81 80 81 79 79 79 74 74 74 71 70 66 61 55 56 55 59 58 54 55 55 52 50 52 54
85 86 87 86 86 85 82 82 82 82 81 76 76 74 72 74 72 71 65 60 60 59 62 60 56 54 51 49 49 52 50 57
84 86 86 88 88 88 85 83 83 83 80 76 76 75 74 71 69 64 61 61 61 62 60 57 57 54 49 50 49 50 54 54
81 82 85 86 87 86 85 83 82 83 81 79 75 72 69 69 66 63 62 61 62 63 59 58 54 50 48 49 51 55 56 57
82 82 81 82 83 83 84 83 81 82 81 79 73 67 64 63 62 63 61 61 63 61 61 56 51 49 50 52 51 54 56 52
82 81 79 79 79 80 81 80 80 81 81 80 76 65 63 61 60 60 59 59 57 56 53 50 49 49 51 51 54 56 51 49
82 81 79 79 78 77 77 77 79 79 78 75 73 69 64 63 62 61 58 55 52 50 50 49 48 51 53 53 51 50 48 48
78 79 78 77 75 76 76 73 73 74 73 72 69 68 68 66 63 61 59 56 55 53 49 49 49 51 52 51 49 47 47 47
75 76 76 74 74 74 72 70 70 71 70 68 68 67 67 65 63 61 59 58 56 53 51 53 49 50 41 41 46 49 46 46
72 72 71 71 72 71 68 69 70 68 67 66 65 64 62 60 60 58 57 55 54 50 48 47 47 48 40 40 39 45 43 43
69 69 68 69 70 69 68 68 67 65 64 63 63 61 60 59 58 56 53 52 51 51 51 52 53 52 41 40 38 41 40 42

GFSFLT1_sfc_temp_036.txt.gz
Temp
70 69 69 67 67 66 67 67 67 67 68 68 69 70 69 69 69 71 70 72 71 69 70 68 67 65 64 64 63 62 61 60
71 70 68 67 66 66 67 67 67 69 67 66 68 67 70 70 68 72 70 72 71 69 68 66 65 64 64 63 61 60 58 59
71 70 70 67 66 67 68 68 69 70 70 70 71 70 71 72 70 70 67 68 71 69 67 66 65 64 63 61 60 57 58 58
71 71 70 70 68 68 71 71 70 70 71 72 74 72 72 72 70 69 70 71 72 70 67 66 64 63 61 60 59 58 55 55
73 72 72 70 71 72 73 73 73 74 74 73 72 71 69 71 70 70 71 70 69 69 68 66 65 64 62 59 61 58 56 53
75 74 74 75 74 73 73 75 75 75 75 73 72 70 71 72 70 69 68 67 68 66 67 65 64 63 61 61 60 58 57 53
79 78 77 76 75 74 74 74 76 76 75 73 71 67 69 69 68 68 67 66 67 65 66 63 58 56 54 53 54 56 54 53
78 78 78 77 75 73 74 74 75 76 75 74 72 71 70 69 69 67 65 64 63 60 58 56 55 54 53 52 53 52 51 50
79 80 79 79 77 75 75 75 74 76 75 74 73 73 71 68 67 64 63 62 60 57 56 55 54 53 53 53 51 49 49 48
80 82 82 80 79 76 75 76 77 77 76 74 73 71 66 63 64 65 62 59 58 56 55 54 54 53 52 50 49 48 48 48
81 82 81 82 81 81 77 77 78 78 77 75 72 66 66 65 66 64 60 57 57 56 55 55 53 52 51 50 48 49 48 48
79 79 80 82 83 82 78 78 78 78 78 74 69 65 62 63 67 62 59 58 57 57 56 54 53 52 51 49 48 48 48 49
80 79 79 79 80 81 79 78 79 79 75 68 67 67 67 64 61 61 59 59 58 57 57 55 54 51 50 48 48 50 48 47
79 78 77 77 77 77 78 77 77 78 77 70 66 64 61 61 59 58 57 56 55 55 54 53 50 48 48 48 49 47 47 47
79 77 76 76 76 76 76 74 74 75 74 64 64 62 61 59 58 56 53 52 50 49 49 49 48 48 49 49 48 47 46 46
77 77 75 75 73 73 74 71 70 71 70 68 63 62 61 60 57 56 54 52 50 49 48 47 47 48 49 48 47 45 45 45
77 77 76 74 73 72 70 68 68 68 67 65 66 64 64 61 58 56 54 52 52 49 47 46 46 49 42 44 45 46 46 45
74 74 72 72 70 68 66 66 67 65 64 64 63 62 59 57 56 55 52 50 49 47 47 46 45 44 41 41 40 42 41 40
71 70 69 69 68 67 66 66 64 63 62 61 61 59 57 56 54 51 48 47 46 45 46 46 46 47 40 40 38 39 39 41

GFSFLT1_sfc_temp_039.txt.gz
Temp
59 58 59 58 57 58 59 59 60 61 63 63 64 61 64 67 64 64 68 67 67 65 65 65 64 62 61 60 59 58 57 57
61 59 60 59 58 58 58 58 59 61 61 60 59 60 62 62 62 67 65 67 66 63 63 62 65 61 60 59 58 57 55 54
61 61 59 59 59 60 60 61 61 63 64 65 63 62 61 63 63 64 65 65 65 64 62 61 61 60 59 58 57 54 54 53
62 61 59 60 60 61 63 64 65 66 66 67 64 61 61 61 60 63 65 64 66 64 62 61 60 59 58 56 55 56 52 51
64 63 59 60 61 63 64 65 65 67 67 66 64 64 64 65 61 63 63 64 63 65 63 63 62 60 58 57 59 57 55 52
65 64 64 63 64 64 65 66 66 68 67 67 65 65 65 66 63 64 65 63 65 64 61 60 60 59 59 59 57 55 53 51
67 68 68 66 65 66 66 67 67 67 67 67 67 64 63 63 62 63 63 64 63 62 63 61 59 55 54 54 54 53 52 52
67 67 68 67 67 66 67 68 68 69 69 69 68 65 62 64 63 60 61 59 58 60 59 56 55 54 55 55 52 50 50 50
70 69 69 70 69 69 68 68 69 70 70 69 70 67 66 67 61 59 59 61 61 57 55 55 54 54 52 51 50 49 50 49
71 72 71 71 71 70 70 70 71 71 70 70 69 69 66 62 62 62 62 62 57 55 55 53 51 50 50 49 48 49 49 49
71 72 73 73 73 73 71 72 72 72 72 70 69 67 67 63 63 59 59 56 57 54 54 53 52 50 49 50 49 49 49 48
67 67 69 74 77 75 71 71 67 68 67 69 68 65 65 66 62 60 58 56 56 55 55 53 50 49 50 50 49 49 48 47
69 68 68 68 69 74 72 71 68 64 65 67 65 61 61 58 59 57 56 55 56 56 54 53 52 51 50 49 48 49 47 46
67 68 68 68 68 67 70 69 67 66 66 68 61 61 62 59 58 57 56 55 55 55 54 52 51 49 48 48 48 48 47 47
66 65 67 67 67 66 65 65 65 64 63 61 58 58 57 57 56 55 53 53 52 52 52 51 50 48 49 48 48 46 45 46
66 65 64 64 64 63 63 62 62 63 61 59 57 57 57 55 54 53 51 51 50 49 48 47 48 47 48 47 47 45 45 45
68 67 66 66 64 61 62 61 60 61 59 58 58 58 57 56 54 52 51 49 49 48 46 46 45 47 41 42 45 45 45 44
66 66 65 64 62 61 59 59 59 59 58 58 56 55 53 51 51 52 50 48 44 42 41 41 41 41 41 41 41 42 40 38
63 61 59 60 60 60 58 59 57 56 56 55 54 53 51 49 47 45 43 42 41 40 41 41 41 41 40 40 38 38 37 39

GFSFLT1_sfc_temp_042.txt.gz
Temp
56 58 57 57 57 59 59 60 60 60 61 61 60 59 61 63 59 59 62 63 64 62 62 62 61 60 58 58 57 56 55 55
56 55 56 57 55 56 58 58 58 59 60 59 59 57 56 58 59 61 62 63 64 61 61 60 60 62 61 59 56 55 52 52
55 54 54 54 54 55 57 58 58 59 60 60 59 60 57 59 60 60 62 63 63 62 61 60 61 59 58 56 56 52 52 51
55 55 54 54 54 55 57 58 58 60 61 60 57 57 57 58 61 61 62 63 63 63 61 60 60 60 58 56 55 55 52 49
57 56 55 55 55 57 58 59 59 60 61 60 60 60 59 62 63 64 61 62 63 63 61 60 59 59 56 56 55 53 54 52
57 57 57 58 58 58 59 60 61 62 62 62 61 60 62 61 58 61 62 61 63 62 61 59 59 58 56 55 53 53 53 52
60 61 60 59 60 60 61 61 62 64 64 63 62 60 61 61 59 60 62 62 61 60 61 60 59 58 56 55 54 52 51 51
61 60 59 59 59 60 61 62 62 64 64 64 64 63 61 62 62 60 60 58 57 59 61 59 58 57 56 55 53 53 50 50
62 63 62 61 61 61 62 62 62 64 64 64 65 64 64 63 64 60 61 62 62 60 60 60 59 55 54 55 53 52 50 50
64 65 64 64 63 62 62 63 64 65 65 65 65 65 64 63 62 60 60 63 62 60 58 56 55 54 54 52 51 50 50 50
66 66 66 67 66 65 65 66 65 66 67 66 66 66 65 65 62 60 59 56 57 56 55 54 53 52 51 51 50 50 50 50
67 67 68 69 69 68 65 65 65 65 65 66 66 65 65 63 60 59 57 57 57 55 54 53 52 51 51 50 50 49 49 48
67 66 68 68 69 69 68 67 66 67 67 66 62 60 59 59 59 58 58 58 57 56 54 54 53 51 51 49 48 49 48 47
63 62 64 65 67 70 70 68 67 68 64 63 61 61 60 61 60 59 59 59 58 55 55 53 51 51 49 48 49 48 48 47
64 62 63 63 63 63 68 67 67 66 62 62 62 60 61 62 62 59 57 56 54 54 53 52 50 49 49 49 48 47 46 46
62 62 62 60 59 59 60 67 67 65 63 62 62 60 61 59 56 55 54 53 52 52 51 50 48 48 48 47 47 45 45 44
65 63 62 61 60 58 58 57 57 60 60 60 59 57 57 55 53 51 50 50 49 48 47 46 46 47 41 42 45 45 45 44
62 63 63 61 60 59 56 56 57 57 57 57 56 55 54 52 52 50 49 47 46 45 44 45 44 44 41 41 41 44 42 41
61 62 59 57 56 55 56 57 55 54 53 52 52 51 51 50 48 45 43 43 43 40 39 40 41 41 39 39 38 38 36 38

GFSFLT1_sfc_temp_045.txt.gz
Temp
56 58 58 58 58 58 58 59 59 59 61 60 59 58 60 61 61 61 62 61 62 60 59 59 60 59 57 57 56 54 53 52
54 59 57 57 57 58 58 58 58 59 59 60 59 57 59 60 60 62 60 61 61 59 58 58 58 59 59 58 54 54 51 52
53 53 54 53 54 56 58 59 59 60 62 63 62 57 58 59 60 58 60 61 61 60 59 58 58 58 56 55 55 52 52 50
52 53 52 51 51 53 56 59 59 61 61 57 57 58 57 56 55 55 58 59 60 60 59 59 58 57 56 55 53 54 50 49
54 52 52 50 51 53 56 57 58 59 57 56 55 58 57 59 57 57 58 59 60 61 60 59 58 57 55 56 55 53 53 49
55 54 54 53 53 53 55 56 57 58 58 58 56 55 57 58 56 56 57 57 59 60 60 59 58 57 56 55 53 53 51 50
59 58 56 54 54 54 55 56 57 58 58 58 57 56 56 57 58 57 58 57 57 58 59 59 58 56 56 56 56 53 53 51
58 57 56 55 54 54 55 56 56 58 58 59 59 58 57 59 59 58 57 56 56 58 58 57 57 58 57 56 54 54 53 52
58 59 58 57 56 56 56 57 57 59 59 59 60 60 60 60 60 59 57 58 59 58 58 59 60 58 55 55 54 54 53 52
59 60 60 59 58 58 57 58 59 60 60 61 61 61 60 60 59 59 58 59 60 58 58 59 59 58 57 55 54 52 52 52
61 61 61 61 61 60 59 60 61 61 61 61 62 61 61 61 60 58 57 58 57 56 56 56 56 55 55 54 53 52 52 50
62 63 63 63 63 62 60 60 61 61 61 61 62 62 62 61 61 62 58 56 56 57 56 55 54 54 51 51 50 49 51 49
65 64 64 63 63 63 62 61 61 62 62 62 61 62 62 61 60 60 58 58 58 57 56 54 52 51 51 51 49 49 49 48
61 61 62 64 64 64 64 62 62 63 63 62 61 61 61 61 62 61 60 61 59 59 58 56 54 53 51 50 50 49 48 48
59 61 63 65 65 65 65 65 64 64 64 62 61 61 61 62 61 62 61 59 59 59 56 55 53 51 51 49 48 47 47 47
59 58 59 60 61 63 65 66 65 64 63 62 62 62 63 61 60 60 59 59 58 55 53 52 50 49 49 48 47 46 45 45
63 61 60 59 61 62 61 61 59 62 63 61 61 57 57 57 56 55 53 52 51 52 50 48 47 48 44 42 45 45 45 44
62 60 63 62 61 58 57 55 57 59 59 58 57 56 56 54 53 52 50 48 47 47 46 47 46 44 41 41 41 44 43 42
61 63 59 59 56 54 53 54 56 57 57 56 55 54 51 50 50 48 46 46 45 44 44 44 44 43 40 39 39 40 40 40

GFSFLT1_sfc_temp_048.txt.gz
Temp
58 55 56 58 58 58 58 59 59 58 59 59 58 58 60 62 61 62 62 62 62 60 60 58 58 57 56 57 55 54 54 53
58 58 57 57 57 57 58 57 58 58 57 57 58 57 58 59 60 61 61 62 61 59 59 58 58 57 56 55 54 53 51 51
54 57 56 56 56 57 57 58 57 58 58 58 60 59 59 60 60 59 60 61 61 60 57 57 56 55 55 53 54 51 52 51
53 55 55 55 55 57 58 59 59 59 60 60 58 58 58 57 57 58 59 60 60 59 59 57 57 56 54 53 53 53 50 49
52 54 54 54 55 57 58 59 59 60 62 60 60 61 61 62 59 58 59 60 58 59 58 57 57 55 55 54 54 52 51 49
53 52 53 55 53 53 53 57 58 60 59 59 57 57 60 58 55 55 55 55 58 58 58 57 56 55 55 54 52 51 50 49
56 55 53 51 51 51 52 54 55 57 57 56 56 57 56 55 54 55 55 54 54 56 57 57 57 56 55 55 54 52 53 52
55 53 52 51 50 50 51 53 54 56 56 56 56 57 56 57 57 57 56 54 54 54 55 55 55 55 55 55 54 54 53 53
57 55 54 53 52 51 52 53 54 56 56 56 57 57 56 56 56 56 54 54 54 55 55 56 56 56 55 54 54 55 54 53
57 58 56 55 54 53 53 54 55 55 56 56 57 57 57 56 55 53 53 54 55 56 56 55 55 56 56 55 55 54 54 54
57 57 58 57 57 56 55 56 56 57 57 57 57 57 57 57 54 54 55 55 56 56 56 56 57 57 57 56 57 57 56 54
57 58 59 60 59 57 56 56 57 56 57 57 57 57 57 56 57 58 57 57 57 57 57 57 57 57 57 56 55 52 52 53
58 59 59 58 59 59 57 57 57 58 58 57 57 58 59 58 59 60 60 60 58 58 58 57 58 57 54 53 52 51 51 50
56 57 58 59 59 59 60 59 58 59 59 58 58 58 58 58 59 60 61 58 59 59 59 57 57 53 51 51 51 51 50 50
55 55 58 60 60 60 60 60 60 60 59 59 58 58 59 60 60 60 60 59 58 59 59 58 58 53 51 50 50 49 48 48
57 56 57 59 58 60 61 61 60 60 60 59 59 59 60 60 60 60 60 58 58 60 58 56 53 52 50 49 49 48 47 45
60 59 57 57 59 59 61 61 60 60 60 59 60 60 60 59 60 59 59 59 59 58 56 52 50 50 44 44 46 47 46 45
60 60 60 59 58 59 59 61 58 59 59 60 59 59 59 59 60 59 57 56 53 52 50 49 48 48 42 42 43 45 44 43
60 59 58 59 58 55 54 55 56 57 57 56 55 56 57 57 54 53 49 49 50 47 47 46 45 44 40 40 39 42 40 40

GFSFLT1_sfc_temp_051.txt.gz
Temp
62 62 61 62 62 61 60 59 59 61 60 60 60 61 62 62 63 65 67 70 68 68 68 67 68 68 67 68 66 67 67 66
62 62 61 61 61 59 59 59 58 59 58 58 58 58 61 62 67 68 68 70 69 68 69 67 67 67 68 66 66 65 64 64
60 60 60 59 60 61 58 59 59 59 59 59 61 61 61 64 64 64 68 68 68 67 67 67 66 66 65 64 65 65 66 64
57 58 59 60 58 59 60 59 59 60 60 57 57 59 60 62 62 61 65 66 70 69 68 67 64 66 66 65 65 65 65 63
59 59 59 60 61 62 62 62 60 61 60 58 58 61 61 63 64 62 61 65 66 68 69 67 65 66 65 66 66 66 66 64
60 60 61 61 62 61 61 63 63 62 61 60 59 62 64 64 64 60 61 65 66 67 67 67 67 66 66 65 63 62 63 65
63 63 62 61 61 58 60 62 62 64 63 63 61 62 64 64 62 61 64 65 64 65 66 66 67 66 65 65 64 63 62 62
63 60 59 58 56 55 57 60 61 63 63 62 63 63 63 64 64 63 64 62 62 63 64 64 65 66 66 65 64 63 62 61
64 62 61 58 56 55 56 58 60 62 62 62 63 64 64 64 65 66 64 63 64 64 64 65 66 65 66 65 64 64 63 62
65 64 62 61 59 58 57 59 61 62 62 63 63 63 63 63 64 63 63 64 64 64 64 64 64 65 65 64 63 62 61 61
65 64 63 63 62 62 60 61 61 62 62 63 63 62 63 63 63 61 62 63 63 64 65 65 65 64 64 63 62 62 61 57
65 65 65 64 64 63 60 61 61 61 62 62 62 62 62 62 61 61 62 62 62 63 64 64 64 64 64 62 63 62 56 57
68 66 65 64 63 63 62 61 62 62 62 62 60 61 61 61 60 62 62 62 61 62 63 64 64 64 64 61 59 56 55 54
67 65 64 65 65 63 63 62 62 63 63 62 61 60 60 60 61 62 63 63 63 64 63 62 63 61 62 60 60 55 53 55
68 65 65 66 66 65 64 63 63 63 63 62 61 61 61 62 62 63 63 64 64 65 64 64 63 62 61 58 57 58 57 56
66 65 66 66 65 65 66 66 64 64 63 63 62 62 63 64 63 64 63 63 64 65 64 64 64 62 57 56 55 53 53 51
68 65 66 63 64 65 66 66 65 64 64 62 64 64 63 63 64 63 64 64 64 63 63 62 60 57 48 46 50 52 52 47
67 67 66 65 65 64 66 66 66 64 64 64 64 64 63 63 64 64 64 64 64 62 61 59 56 55 44 44 43 48 47 46
67 68 68 68 67 67 66 69 66 64 64 64 64 64 63 64 63 62 62 61 59 56 53 51 49 47 41 41 41 44 43 43

GFSFLT1_sfc_temp_054.txt.gz
Temp
73 68 69 67 65 61 62 62 62 62 62 61 61 60 60 61 65 71 73 74 73 75 76 75 77 77 76 75 74 75 75 76
74 70 66 66 65 62 60 59 60 60 59 60 60 59 60 61 64 69 71 72 73 75 76 74 76 76 76 73 74 71 73 74
71 70 69 63 67 63 61 60 61 61 60 60 61 61 62 64 65 68 71 71 74 74 75 74 75 76 74 72 72 71 74 72
71 69 69 68 67 64 61 61 60 61 60 61 60 59 59 60 63 69 71 73 76 76 74 75 74 75 73 71 71 71 71 71
74 71 70 70 70 69 65 62 61 60 60 60 58 57 58 61 63 70 73 73 73 75 74 73 73 74 73 73 73 72 72 70
75 73 73 73 72 70 67 64 63 61 61 61 59 59 61 62 63 64 68 71 73 74 74 73 73 74 72 72 71 70 73 70
77 76 75 74 73 71 68 65 63 62 61 62 60 61 63 64 61 61 61 63 68 70 73 72 71 72 72 71 72 70 70 71
76 75 74 73 71 70 69 66 63 63 62 63 64 64 65 67 65 65 65 62 62 64 68 70 70 70 72 73 71 71 70 69
77 77 75 74 72 70 68 69 69 67 64 64 68 69 70 69 70 71 71 70 71 67 70 71 71 72 72 72 72 72 71 70
78 78 76 75 73 70 66 69 71 71 69 68 67 69 70 71 72 72 72 73 74 72 71 70 71 71 71 71 71 70 71 70
80 79 77 76 75 72 67 69 71 73 72 71 71 70 71 72 72 71 72 72 72 71 70 69 71 71 71 70 70 71 71 71
80 79 78 77 76 74 70 69 71 72 71 71 70 71 71 71 71 71 71 71 71 71 71 71 70 71 71 71 70 71 69 69
81 79 78 76 75 75 74 71 72 72 72 70 69 70 70 69 69 70 70 70 70 71 71 71 71 73 73 71 69 69 69 67
80 79 77 76 75 74 75 73 72 73 73 71 69 68 69 69 69 69 70 69 70 70 70 70 69 71 70 68 65 69 68 67
81 80 79 78 77 75 75 74 73 74 73 71 69 69 69 69 69 69 69 70 69 69 70 70 70 70 69 69 68 67 67 66
79 79 81 80 78 76 76 76 74 73 72 72 70 70 70 70 69 69 69 69 69 70 70 70 70 70 70 69 69 67 65 61
78 80 80 78 77 77 77 76 74 73 71 71 72 71 70 69 70 69 69 68 69 69 69 69 69 69 53 48 56 61 60 57
74 76 78 78 77 74 74 76 77 74 72 72 72 72 70 69 70 70 69 69 69 69 69 69 68 69 45 45 45 60 54 52
69 73 75 80 81 79 78 80 77 75 72 72 72 71 70 71 70 69 69 69 68 67 66 65 63 64 45 44 42 49 46 45

GFSFLT1_sfc_temp_057.txt.gz
Temp
80 78 78 76 69 65 66 65 61 62 61 60 60 60 61 62 65 70 71 73 72 72 73 73 74 77 77 77 75 77 77 77
81 77 76 75 71 65 64 62 62 62 60 59 58 58 59 60 63 70 70 72 73 71 71 71 71 75 75 76 75 74 75 77
79 76 74 73 70 66 62 62 61 62 62 63 62 60 60 61 62 66 72 73 73 72 72 71 70 74 75 74 73 72 74 75
78 76 73 71 71 66 62 62 62 64 63 65 63 63 60 59 60 63 68 71 73 72 71 72 71 75 74 73 73 72 71 73
81 77 75 72 72 70 65 62 63 65 63 61 61 60 59 61 62 64 72 71 71 70 75 75 75 75 75 73 75 73 73 71
82 79 78 77 75 71 69 62 62 63 64 62 61 62 64 63 62 62 69 70 65 69 75 75 74 75 74 74 72 71 73 71
84 83 81 78 77 74 68 65 61 62 63 63 62 61 60 61 60 60 68 69 69 68 75 73 73 72 72 72 71 71 71 72
83 82 80 79 76 74 70 67 64 61 61 61 63 65 61 63 64 63 62 63 65 68 71 71 72 71 70 68 68 69 70 69
84 83 81 79 77 75 73 70 69 64 62 62 65 67 66 68 66 68 67 64 66 67 71 73 73 73 72 71 71 70 68 68
83 84 83 80 78 75 74 74 73 70 64 63 63 64 65 68 69 70 70 70 71 70 70 71 72 72 72 71 71 70 71 70
85 85 84 82 81 79 75 76 75 74 71 67 65 65 66 70 70 71 71 71 72 71 70 70 70 71 71 71 70 71 70 70
85 86 86 84 83 80 76 75 76 76 74 72 69 69 68 68 70 72 73 73 73 73 73 72 72 72 72 71 70 70 70 70
85 85 84 84 82 81 78 75 75 76 77 75 72 72 72 70 70 72 73 73 74 74 74 74 73 73 73 72 70 71 70 69
85 85 83 82 82 81 80 76 75 77 77 76 74 73 73 72 72 73 74 73 73 73 74 73 73 72 72 72 71 71 70 70
83 84 85 84 82 81 81 80 78 77 78 76 74 73 73 73 73 73 73 73 73 73 73 73 72 73 73 73 73 72 71 69
77 79 83 85 84 83 82 81 81 79 78 77 75 73 74 73 73 73 73 72 73 73 72 72 72 72 72 71 71 70 67 65
73 74 77 79 82 85 83 82 81 80 77 77 78 76 74 73 73 72 72 71 72 72 71 71 70 72 57 51 60 69 66 63
69 71 73 75 78 81 82 84 82 80 79 78 77 77 75 73 73 73 72 71 72 71 70 70 70 71 50 46 46 67 66 65
69 71 71 73 75 78 80 84 83 81 79 78 78 77 75 75 73 73 71 71 70 70 70 70 69 69 47 45 44 61 62 57

GFSFLT1_sfc_temp_060.txt.gz
Temp
80 79 77 71 67 67 64 63 62 61 61 60 61 60 60 61 61 63 64 68 68 66 68 67 67 68 67 66 66 66 65 64
79 77 75 68 66 65 64 62 61 60 59 58 58 58 59 60 61 65 66 67 67 67 66 66 67 66 66 66 66 65 64 65
78 74 73 71 64 63 64 63 62 61 60 61 60 59 59 60 61 66 66 66 67 68 66 66 66 65 66 65 66 63 64 64
76 73 71 70 66 63 62 63 62 62 62 61 60 60 59 58 58 62 67 67 69 68 66 65 65 65 64 64 65 64 61 61
78 74 71 69 68 64 62 62 62 63 63 61 59 58 57 61 60 62 66 67 67 69 68 66 64 64 65 65 67 64 63 60
78 75 74 72 70 66 62 62 62 63 63 63 61 60 61 62 61 60 63 65 66 67 67 65 65 66 66 65 64 64 63 60
81 78 76 73 71 67 63 61 62 63 63 63 62 61 60 61 60 60 61 64 64 64 67 66 66 65 65 64 64 63 64 62
80 77 76 74 71 68 66 61 61 62 61 62 62 62 62 61 61 61 61 62 64 62 63 64 66 66 65 65 63 62 63 62
81 80 77 75 72 69 66 64 62 61 62 62 62 63 63 62 62 63 62 63 65 66 64 64 65 67 67 65 63 63 63 62
80 81 78 76 73 71 68 67 66 62 62 63 62 63 62 62 63 64 63 64 66 64 65 65 66 66 66 65 64 63 62 63
80 81 79 78 76 74 70 70 68 66 62 62 62 63 64 64 64 63 64 64 64 65 64 65 66 66 66 65 64 64 63 64
81 81 81 80 78 76 72 72 71 69 64 63 62 63 64 64 64 64 64 65 65 65 65 65 65 65 66 65 64 64 64 63
81 81 81 80 78 77 74 72 72 71 69 64 62 63 63 63 63 65 66 65 66 66 66 67 66 66 66 65 64 66 64 62
79 80 80 80 79 77 77 73 73 74 73 69 65 63 63 63 63 65 66 67 67 68 68 67 67 66 66 66 66 65 64 64
74 74 74 75 79 77 77 76 73 73 74 72 68 66 65 65 66 66 66 68 67 68 68 68 68 69 69 68 68 66 65 66
70 70 71 73 73 74 78 78 76 74 71 73 71 70 69 68 67 67 67 67 68 68 68 68 68 68 69 67 67 65 64 64
68 70 71 70 70 71 73 75 77 77 73 72 74 72 71 69 69 68 68 67 68 68 67 67 66 68 58 51 59 65 65 64
66 67 67 68 68 69 69 72 75 76 75 74 74 73 72 70 70 69 68 67 67 66 66 66 65 66 51 49 48 64 63 62
65 65 65 66 67 66 66 69 71 74 77 76 75 74 73 72 70 68 67 67 66 65 65 65 64 65 49 48 46 58 61 61

GFSFLT1_sfc_temp_063.txt.gz
Temp
70 67 63 62 60 61 61 61 61 61 61 61 62 62 62 61 61 63 64 66 65 64 65 63 65 64 64 65 65 62 63 63
70 67 63 60 59 60 61 60 60 60 59 59 59 58 58 59 61 64 64 65 65 64 66 64 63 63 66 67 64 63 60 61
69 63 62 60 59 59 61 60 59 60 60 60 60 59 59 60 60 61 65 64 66 64 64 63 64 63 62 63 63 61 61 61
67 64 59 58 58 58 61 60 60 60 60 60 60 59 59 58 59 61 64 64 66 66 65 64 63 64 62 62 62 63 60 60
68 66 61 58 58 59 62 61 60 61 61 59 58 58 56 59 60 63 64 64 64 65 65 65 63 62 61 61 64 62 60 59
66 65 65 61 59 58 59 61 61 61 61 60 60 59 60 60 59 59 62 62 63 64 63 63 60 60 60 61 61 65 61 58
68 67 66 63 59 58 58 59 60 61 61 60 59 59 58 58 55 56 59 62 63 62 64 63 62 61 60 60 61 63 62 60
68 65 64 64 58 57 57 58 59 61 61 60 59 59 59 58 57 58 59 58 60 61 62 59 60 62 61 61 61 61 61 60
68 67 66 64 61 58 59 58 60 61 61 60 60 60 59 60 60 60 60 61 62 64 63 63 60 62 62 62 61 62 62 60
69 69 68 66 64 60 59 58 60 62 61 60 60 62 62 60 61 61 62 63 64 61 63 62 63 63 62 63 62 60 60 60
70 70 69 68 66 63 61 60 60 61 62 61 62 62 63 63 61 60 61 62 63 64 62 61 62 63 63 62 62 63 60 60
69 71 71 70 68 64 63 62 61 60 60 62 62 61 62 62 61 61 61 62 62 62 62 62 62 62 63 63 64 64 61 62
67 68 69 68 68 66 64 64 63 62 60 60 60 62 62 62 62 62 62 61 62 62 63 62 63 63 63 63 62 64 61 60
65 66 66 67 64 65 67 65 65 66 62 60 59 60 61 62 62 63 64 63 62 62 62 62 63 63 63 63 63 63 63 62
64 64 64 64 64 64 65 65 66 66 64 61 59 59 60 60 62 63 63 64 62 62 63 63 63 63 64 64 64 63 62 63
63 61 62 63 63 64 64 64 64 65 65 65 61 61 61 61 61 62 63 63 63 64 63 63 63 63 65 63 63 63 62 62
61 61 61 61 59 58 58 59 61 65 65 66 67 64 62 61 61 61 62 62 62 63 63 64 63 65 56 50 58 63 63 62
58 58 58 56 53 53 51 54 58 60 62 65 67 67 65 64 64 63 62 62 63 62 63 64 64 64 51 48 48 64 62 61
55 55 53 51 49 48 49 52 53 55 54 54 57 59 64 67 65 64 64 64 63 63 63 63 63 64 50 48 45 57 62 63

GFSFLT1_sfc_temp_066.txt.gz
Temp
65 62 61 59 59 59 61 61 61 62 61 62 62 61 60 59 61 64 64 66 66 65 64 63 64 64 62 62 59 60 63 61
64 61 59 58 58 58 59 60 60 61 60 60 60 60 60 60 61 64 64 65 65 64 65 64 64 61 63 63 61 62 60 60
61 59 58 58 58 58 58 60 60 60 60 61 60 60 60 61 60 61 64 63 65 64 64 63 63 61 59 62 62 58 60 61
60 58 57 57 57 57 58 59 59 60 60 60 58 59 58 58 58 59 61 61 65 66 65 63 63 62 61 60 61 62 60 58
62 59 57 56 57 58 58 59 59 60 60 59 58 58 56 59 59 60 60 61 62 65 64 63 62 62 60 61 62 60 60 61
63 59 58 58 57 57 58 58 60 60 60 60 59 58 59 59 60 59 59 59 61 64 64 62 61 61 60 60 60 59 61 58
66 62 59 57 57 57 57 57 59 60 60 59 59 59 59 58 58 57 58 60 61 61 65 63 61 60 61 60 61 61 61 61
63 60 57 56 57 57 57 57 57 59 59 59 60 59 58 58 57 59 59 60 60 60 62 61 61 62 61 60 59 59 59 59
62 62 59 57 57 56 57 56 57 58 59 59 59 59 57 57 58 59 58 60 62 63 62 63 63 63 61 61 59 59 59 58
63 63 62 58 57 56 57 57 57 58 59 60 58 57 58 58 57 57 59 57 61 62 63 61 61 60 61 60 59 59 59 61
64 63 63 61 59 58 58 58 58 58 59 60 60 59 59 59 58 57 58 59 58 59 61 61 61 61 60 59 58 59 59 60
62 63 63 63 60 58 58 58 59 58 59 59 60 61 61 61 60 59 59 59 59 58 59 61 62 61 59 59 59 60 59 60
62 61 62 63 60 59 57 57 58 59 59 59 59 60 61 61 60 61 60 59 59 60 59 59 60 61 61 60 60 62 60 60
61 61 61 61 60 60 60 59 58 59 59 59 58 59 59 60 61 61 61 60 60 59 61 60 60 60 61 61 61 61 61 61
58 58 58 58 58 57 59 60 61 61 59 58 58 58 59 59 61 61 62 62 61 61 60 60 60 61 62 62 62 61 61 61
57 55 54 53 53 53 54 54 56 59 61 59 58 58 59 60 60 60 61 61 63 63 62 61 61 61 62 61 62 61 61 61
55 54 51 50 49 48 50 51 52 55 54 54 61 61 60 59 59 59 59 60 61 61 62 61 60 61 54 49 55 60 61 60
51 49 47 46 45 46 46 48 50 50 50 50 52 53 56 60 61 60 59 59 60 60 61 61 61 61 50 48 47 59 60 59
47 45 44 43 43 43 45 46 46 45 45 46 48 49 52 52 53 56 60 60 59 59 59 60 60 61 50 47 45 56 59 60

GFSFLT1_sfc_temp_069.txt.gz
Temp
62 59 59 58 58 58 60 62 62 62 62 61 61 60 60 60 60 62 62 64 64 62 63 61 63 61 60 59 60 57 57 59
60 59 58 58 57 57 60 61 61 61 61 60 59 59 59 59 59 62 62 63 64 63 63 62 62 59 61 60 56 57 55 57
58 58 59 59 59 58 58 60 61 61 61 61 61 61 60 60 59 60 62 63 64 63 62 62 62 61 59 60 57 55 56 58
56 58 58 59 58 58 57 59 61 62 61 59 59 59 59 59 58 59 61 62 62 63 63 63 62 62 60 60 58 59 56 55
59 57 58 58 59 57 57 61 60 60 60 59 59 58 57 58 59 59 60 61 61 61 62 63 62 62 61 60 61 61 61 59
59 57 57 59 60 58 59 59 58 59 59 60 59 58 59 59 59 58 59 59 59 61 62 60 62 61 61 60 58 58 63 60
63 60 58 58 59 59 58 58 56 58 59 58 56 58 58 57 58 57 58 59 58 58 61 60 61 61 60 59 58 58 59 62
59 55 56 57 57 57 58 58 57 57 59 57 56 55 57 58 58 58 57 58 57 57 59 59 59 59 59 59 57 57 57 58
59 57 56 56 58 58 58 57 58 57 58 59 59 57 59 58 59 59 59 59 60 60 59 59 60 59 58 59 58 57 57 57
60 57 57 56 58 58 58 57 59 59 58 59 59 59 55 55 56 57 59 61 62 59 60 59 59 59 59 59 58 58 58 59
59 58 57 57 57 59 57 58 59 59 59 57 58 58 59 55 54 54 55 55 57 60 60 60 60 60 60 59 59 60 59 60
57 58 58 56 57 58 57 58 58 59 59 60 58 58 56 56 55 55 55 55 55 56 60 61 60 60 61 60 60 60 58 60
57 57 58 56 56 56 58 58 57 59 59 59 58 57 58 58 57 58 56 56 56 57 56 58 61 62 62 60 60 60 58 57
54 54 54 54 56 57 57 57 56 57 57 58 58 56 57 57 58 60 60 59 58 57 58 57 59 59 61 61 61 61 60 59
50 50 50 50 52 53 54 55 56 57 59 58 56 57 57 57 58 58 58 59 60 59 58 59 59 59 60 60 59 59 59 60
48 47 46 47 47 48 50 50 52 52 55 56 57 58 59 59 59 58 59 58 59 60 60 60 60 59 60 59 60 60 59 59
47 47 45 44 44 45 47 47 48 48 48 49 51 53 57 57 59 59 59 59 60 60 59 59 59 61 53 48 53 59 60 59
45 43 42 42 41 43 42 43 45 45 45 46 47 48 50 50 51 53 56 58 59 59 59 60 59 60 50 47 46 58 59 58
41 41 40 40 41 42 42 41 41 42 42 43 44 44 44 45 47 48 47 48 49 53 58 59 59 61 50 47 46 55 57 58

GFSFLT1_sfc_temp_072.txt.gz
Temp
63 58 58 59 57 58 62 62 61 61 62 61 61 60 60 61 62 62 63 64 63 62 61 60 62 61 60 60 58 57 59 58
58 58 58 57 56 57 61 61 61 61 60 60 59 58 59 59 61 62 63 62 61 61 60 60 61 61 61 60 60 59 55 58
56 57 57 57 57 58 60 61 61 61 61 61 61 60 59 60 60 61 62 61 60 60 60 61 61 59 58 60 60 56 56 59
55 56 57 59 58 59 59 61 61 61 61 60 59 59 59 58 58 59 61 62 61 60 60 61 61 61 58 59 56 57 54 54
56 56 57 60 59 60 59 60 61 61 61 60 59 59 57 58 58 59 60 62 62 61 60 60 61 61 59 60 59 58 57 56
55 56 58 61 61 59 56 59 60 60 60 60 59 59 59 59 59 58 59 60 61 62 60 60 61 61 59 59 58 58 58 57
56 57 58 60 61 58 58 60 59 59 60 60 59 58 57 57 57 57 58 58 59 60 61 59 60 60 59 59 58 59 58 58
55 55 57 59 58 58 59 58 57 57 57 58 58 58 58 57 58 58 57 58 57 57 59 58 59 60 59 59 58 57 57 57
57 56 56 59 58 58 58 58 58 55 54 55 57 55 55 58 58 58 58 59 59 59 59 58 59 59 59 59 58 57 57 56
57 55 56 58 58 58 58 58 59 59 55 55 54 54 55 57 58 58 58 59 60 59 58 58 58 58 58 58 58 58 58 58
56 54 57 59 60 59 59 58 59 59 59 54 55 54 54 54 56 57 57 58 59 58 58 59 58 58 58 58 58 58 57 57
54 55 58 59 59 58 57 58 59 58 59 59 55 54 54 53 53 54 57 57 58 58 58 58 58 58 58 57 58 58 57 58
54 55 56 56 56 57 57 58 58 59 59 58 58 57 54 53 53 53 54 56 55 56 59 58 58 59 59 59 58 59 57 57
49 50 51 53 55 57 57 57 57 57 59 58 58 57 56 54 54 54 54 54 55 54 55 57 58 59 58 59 59 59 58 58
47 46 47 49 50 50 51 51 52 54 58 58 57 57 57 58 58 57 56 56 56 57 58 57 58 58 58 59 59 58 59 60
45 44 44 46 46 47 47 48 48 50 52 52 51 54 58 58 58 58 59 58 59 59 57 56 58 58 59 58 59 58 57 57
43 43 42 42 43 43 43 43 45 47 46 47 48 49 51 50 50 51 56 58 59 59 58 58 58 58 50 47 52 58 58 58
40 40 39 39 40 41 40 41 43 43 42 42 42 44 45 45 48 49 47 47 49 50 54 57 58 59 47 46 45 56 58 58
38 37 37 38 40 40 40 40 40 39 38 38 39 40 40 42 42 41 42 44 46 46 47 47 46 44 36 36 37 50 56 58

GFSFLT1_sfc_temp_075.txt.gz
Temp
75 70 70 70 69 67 64 65 64 64 64 63 63 63 63 63 63 62 63 63 65 64 63 61 61 64 67 68 66 68 69 68
76 68 68 68 67 63 64 63 63 63 63 61 60 60 61 61 63 65 63 63 64 62 61 61 62 64 67 65 66 65 66 68
69 65 66 66 64 63 64 64 63 64 66 63 62 61 61 62 63 62 65 63 62 61 60 61 62 66 65 66 65 65 66 66
67 63 65 66 63 63 64 65 65 65 65 65 61 61 61 60 59 61 61 61 60 60 60 61 63 65 64 64 65 65 63 64
70 64 63 65 65 65 65 65 65 65 64 62 60 60 58 60 60 60 61 62 61 60 60 61 63 65 64 64 66 64 62 60
66 63 66 67 66 64 63 64 64 63 64 63 62 62 65 62 61 60 60 61 61 61 60 60 60 63 64 63 63 65 67 65
67 65 66 66 66 63 60 61 62 63 63 64 62 61 61 61 59 61 60 60 60 60 60 59 59 60 59 60 61 65 65 66
63 63 63 64 63 60 59 61 60 61 62 62 61 61 61 60 60 60 59 58 58 59 60 59 60 59 60 60 59 60 62 63
63 64 63 63 62 59 61 60 59 60 60 61 61 61 60 61 60 60 61 60 60 59 60 60 60 60 59 59 59 58 59 60
64 63 63 63 62 59 60 60 59 59 59 61 61 60 60 61 61 63 61 61 61 60 60 59 60 60 60 59 58 58 58 58
60 61 61 63 61 60 60 61 63 61 60 62 63 63 62 61 61 60 60 60 61 61 62 60 58 59 59 58 59 59 58 58
58 60 60 60 60 59 59 61 63 63 61 61 62 62 63 63 61 60 60 60 59 59 60 59 59 60 60 58 58 58 58 60
54 57 57 57 57 58 58 59 61 62 62 61 61 61 61 61 61 63 63 61 60 59 60 60 61 61 63 61 60 58 57 57
47 48 49 52 54 54 54 55 57 59 60 60 60 60 60 60 61 62 63 63 63 62 61 60 61 63 64 61 62 63 62 61
43 44 45 46 47 48 49 50 52 57 59 58 56 58 59 59 60 61 62 62 63 63 64 64 64 64 62 62 62 62 63 64
41 40 42 43 44 46 47 48 49 51 51 50 49 50 51 53 55 58 60 60 62 63 63 63 64 63 62 62 61 60 61 62
40 40 40 41 42 43 45 45 44 46 44 44 46 47 48 48 49 50 50 50 51 55 57 57 57 53 37 39 46 60 61 61
39 38 39 40 41 42 42 43 44 42 40 42 43 45 45 45 46 46 46 47 48 48 47 47 43 38 36 37 37 46 53 57
36 37 39 40 41 41 41 41 40 40 40 40 41 43 43 44 45 45 45 46 44 41 40 39 40 38 36 36 36 45 48 51

GFSFLT1_sfc_temp_078.txt.gz
Temp
88 87 86 85 83 80 76 70 70 70 70 67 66 66 65 64 63 64 65 64 65 66 66 63 65 61 61 69 72 73 76 76
88 87 83 82 81 79 76 68 69 68 66 63 63 63 64 63 65 66 65 65 63 64 63 62 63 61 61 65 73 72 72 74
85 85 81 79 78 78 75 72 69 69 69 67 65 63 64 65 65 65 66 69 65 63 62 61 61 61 61 67 70 71 72 73
84 82 79 78 77 76 76 74 74 72 72 71 71 65 65 63 63 64 65 69 64 63 62 61 61 62 61 67 71 71 68 72
84 84 78 77 77 77 77 76 72 74 75 71 69 65 60 66 66 61 66 65 61 61 62 61 61 63 63 67 72 71 71 68
83 84 82 80 79 76 76 75 72 75 74 72 71 65 64 69 65 61 62 62 61 60 60 60 61 63 66 69 69 69 71 71
82 83 80 79 78 75 73 72 70 73 73 71 67 65 65 67 63 63 60 60 60 60 60 60 61 62 67 67 68 69 70 70
79 77 76 76 74 68 68 72 67 69 72 71 70 70 67 65 67 63 61 60 59 59 59 60 59 60 64 67 65 66 67 68
77 76 75 75 73 63 65 68 65 67 70 71 68 68 65 65 66 68 66 63 63 64 60 59 60 59 60 61 61 61 64 64
74 74 75 74 72 61 63 65 65 66 67 70 69 67 67 65 65 65 64 65 65 62 60 60 60 60 59 59 58 59 59 61
70 71 70 73 67 63 64 67 65 65 66 65 68 68 68 66 65 65 69 67 65 64 61 59 59 60 61 60 59 60 58 58
64 67 68 66 63 62 61 66 65 63 63 63 67 68 67 65 65 65 65 64 64 62 64 63 61 59 59 59 59 59 58 59
48 57 60 60 60 60 61 66 67 67 63 63 65 66 67 67 65 64 64 63 63 64 64 63 61 59 59 59 58 58 57 57
45 47 47 47 52 56 57 61 62 61 63 63 62 61 61 63 66 68 67 65 63 63 64 62 62 61 61 61 63 63 63 62
42 42 43 44 46 47 49 50 55 57 59 57 55 58 60 61 63 65 66 67 66 64 64 64 64 65 64 65 66 66 64 63
39 39 40 41 43 44 45 47 49 50 50 50 48 49 51 52 52 53 57 61 64 68 67 67 66 57 45 47 63 64 62 64
38 39 39 40 41 43 44 43 45 47 46 45 48 48 47 47 48 48 49 50 50 50 48 47 45 43 37 38 41 56 59 61
38 37 38 39 40 41 43 44 46 45 45 45 47 48 47 47 48 47 47 46 45 43 43 42 38 37 36 36 36 44 49 51
37 38 40 40 41 42 43 44 45 44 46 45 45 45 47 49 49 48 46 43 41 39 39 39 38 36 35 35 35 46 49 40

GFSFLT1_sfc_temp_081.txt.gz
Temp
91 92 93 93 92 88 84 79 78 78 76 71 73 68 67 67 68 69 71 70 67 68 66 64 65 63 62 63 64 72 75 74
91 91 91 90 89 86 82 78 78 77 75 71 70 69 70 68 68 67 66 68 69 68 64 63 63 63 62 63 63 68 69 72
87 90 89 86 86 84 82 78 77 77 77 75 73 70 72 72 71 69 67 67 67 63 64 62 64 62 61 61 62 64 70 72
85 87 87 84 84 82 82 79 77 76 77 75 73 67 70 67 69 69 69 70 70 67 63 62 62 61 60 62 62 65 66 69
85 87 86 83 83 83 82 80 78 77 76 73 69 68 66 71 71 70 70 70 69 66 62 62 61 61 60 62 63 64 67 67
84 86 89 87 84 82 81 80 79 78 77 77 74 73 72 73 72 67 65 66 63 62 62 61 61 61 61 61 62 64 68 68
86 88 90 87 85 82 79 79 78 78 78 77 75 73 71 71 69 65 62 62 61 60 60 61 61 61 60 61 63 67 69 70
82 85 87 86 82 79 78 79 75 78 77 76 75 74 71 67 68 66 61 59 59 59 59 59 59 61 62 63 63 66 68 68
80 84 85 83 81 78 78 78 73 77 76 75 75 75 73 73 72 70 66 62 61 60 59 59 59 60 61 62 66 67 67 67
74 82 81 82 79 71 71 76 68 73 76 76 74 72 71 70 70 69 67 67 65 63 60 58 58 59 59 60 60 64 66 65
62 78 79 80 73 68 66 71 66 70 75 75 71 71 71 70 69 68 67 67 67 65 62 60 58 58 59 58 59 59 59 59
53 58 74 73 66 64 64 65 66 66 67 71 68 67 70 69 68 69 68 67 66 64 64 61 59 58 58 58 59 58 57 58
46 49 52 62 61 61 62 65 64 65 67 67 67 67 67 68 67 69 69 67 66 64 63 64 61 60 59 58 57 58 58 58
43 44 45 47 49 53 55 62 63 63 64 64 64 65 66 66 66 66 66 65 63 63 63 63 64 63 61 60 59 59 60 58
40 40 41 43 45 46 47 48 53 58 59 57 57 60 65 66 67 67 64 65 63 62 63 63 63 62 59 59 60 60 60 61
37 38 39 41 42 42 44 45 46 50 50 49 48 49 51 51 51 56 59 56 55 55 59 51 48 45 42 44 53 58 61 62
36 37 38 38 40 41 42 42 44 46 46 46 47 47 48 47 48 49 47 46 47 47 43 42 41 40 36 37 41 56 60 57
36 36 36 37 38 40 40 41 45 44 44 45 47 48 47 47 47 45 43 41 41 41 40 39 36 36 36 37 37 48 46 41
35 35 37 38 39 39 41 40 40 42 44 44 46 48 48 47 46 43 42 40 39 39 39 38 36 35 35 36 37 42 38 37

GFSFLT1_sfc_temp_084.txt.gz
Temp
84 84 87 89 88 85 79 76 73 74 72 69 68 66 68 68 67 66 68 68 68 67 65 65 65 63 63 63 62 62 62 65
84 84 85 84 82 82 78 74 72 73 68 67 66 63 65 65 66 66 67 67 67 66 64 64 64 63 63 63 61 61 61 65
81 81 82 81 81 81 77 75 74 74 71 70 70 69 67 67 67 67 67 67 67 65 64 63 63 62 62 62 61 60 61 64
79 81 79 79 79 79 78 75 75 74 73 72 70 69 67 67 65 65 66 67 66 65 64 63 62 62 61 62 61 61 59 61
80 81 81 79 79 79 79 77 76 74 74 71 67 65 64 66 65 66 67 67 66 65 63 63 63 62 61 61 62 61 60 61
78 80 83 81 79 78 78 76 75 74 74 71 68 65 67 67 66 65 65 64 65 65 63 62 61 61 61 61 61 61 60 61
79 82 83 82 80 78 77 75 74 74 73 70 68 67 67 66 64 63 62 61 61 62 62 61 62 61 60 60 61 61 61 61
69 75 82 82 77 76 76 75 73 73 72 72 70 69 67 67 65 63 61 59 59 59 60 60 60 60 61 60 60 60 61 60
62 64 60 80 77 76 75 75 74 73 72 72 71 69 67 67 66 64 62 60 60 60 59 59 59 60 60 60 61 61 61 61
57 59 60 79 77 74 73 75 74 74 72 71 69 68 67 65 65 65 64 62 62 60 59 58 59 59 60 60 60 60 61 61
52 52 54 71 74 70 69 70 72 71 70 71 70 67 67 66 65 64 64 63 62 61 59 58 58 58 58 58 58 59 59 59
46 47 50 55 66 64 64 66 65 67 65 67 67 66 65 66 66 65 65 64 63 62 61 59 57 57 58 57 57 57 57 56
44 44 46 48 49 57 62 62 62 63 66 65 63 64 64 64 64 65 64 63 63 62 61 60 59 58 57 57 57 57 57 56
41 41 41 43 44 47 49 54 60 61 63 63 63 63 63 63 64 64 65 63 61 61 61 60 60 59 58 57 57 56 56 57
39 38 39 40 42 43 43 46 51 57 57 54 53 54 57 57 59 62 62 62 61 60 59 52 50 48 49 52 58 58 57 58
37 36 37 38 39 41 42 43 46 49 50 49 49 50 51 53 51 51 51 51 50 51 48 46 44 42 40 41 48 55 58 58
36 36 36 36 36 39 40 42 42 45 46 46 47 48 48 46 46 45 44 44 43 42 40 39 39 39 37 38 41 52 48 47
35 34 35 35 36 37 36 38 43 43 43 45 46 46 45 43 43 42 40 40 40 38 38 38 36 36 37 39 40 42 39 38
34 34 34 35 36 36 37 38 38 39 41 43 45 44 43 43 41 39 39 39 38 38 37 36 35 36 38 38 37 38 36 34

GFSFLT1_sfc_temp_087.txt.gz
Temp
78 78 78 80 77 73 74 72 69 67 66 64 63 66 65 63 63 64 68 66 66 63 62 62 63 62 61 61 62 62 62 62
74 75 79 75 75 73 72 70 68 67 65 62 62 62 64 62 62 63 64 64 64 62 62 64 63 62 62 62 62 61 61 61
75 74 73 73 71 72 71 70 68 66 66 65 61 60 64 61 61 62 66 63 63 62 63 63 62 62 62 62 61 60 60 61
75 73 71 69 72 71 69 69 69 66 65 65 63 61 60 59 60 61 64 65 63 63 63 63 63 63 62 61 62 61 59 60
71 72 71 68 71 72 70 69 69 67 66 64 63 62 59 59 61 63 61 62 63 63 63 63 63 63 62 62 62 61 60 59
67 70 73 71 74 71 70 69 69 69 67 65 62 59 59 59 60 60 61 62 62 62 62 62 62 62 62 62 61 60 61 60
59 60 61 64 72 72 70 68 69 68 67 65 63 60 60 59 59 59 59 60 61 61 62 62 62 62 61 62 62 61 60 60
53 53 53 56 58 70 69 68 67 68 65 65 64 62 60 59 60 59 59 58 58 59 60 60 61 61 61 62 61 61 60 60
50 50 50 52 59 68 69 66 66 66 65 65 66 63 62 61 62 60 59 60 60 59 59 60 60 61 60 61 60 60 61 59
47 49 50 51 63 67 66 67 67 66 66 66 65 64 63 60 60 60 60 60 60 59 59 59 60 59 59 60 60 60 60 59
46 46 47 50 52 59 60 66 66 66 67 66 65 64 62 62 63 61 59 60 61 59 58 58 58 59 59 59 59 59 60 59
43 43 45 47 49 51 53 60 62 65 64 64 64 64 64 64 63 62 61 60 60 59 59 58 57 57 58 59 59 59 58 58
41 41 42 43 45 46 49 52 60 62 63 62 61 63 63 62 62 62 62 61 60 59 59 58 58 57 57 57 57 58 58 57
40 39 39 39 42 43 44 47 54 60 61 60 60 60 61 60 61 61 61 60 59 59 59 59 58 57 57 57 57 57 57 57
38 37 37 38 39 40 42 43 47 53 54 54 53 55 55 55 56 57 58 59 55 52 50 49 49 49 51 55 57 56 56 56
36 36 36 37 37 38 39 42 44 47 49 49 49 51 51 49 48 48 48 48 48 48 46 44 43 43 42 45 52 55 56 54
35 36 35 35 35 36 38 39 41 45 45 46 47 46 45 44 44 43 43 42 41 41 39 40 40 41 38 39 46 45 45 45
33 33 34 34 34 35 35 37 40 40 43 44 44 43 42 41 41 41 39 38 38 37 37 38 38 39 38 38 39 39 38 37
32 33 33 34 35 35 36 37 37 37 39 41 42 42 41 41 39 38 37 37 36 35 35 36 36 37 37 36 36 36 34 34

GFSFLT1_sfc_temp_090.txt.gz
Temp
73 74 76 76 77 69 71 71 69 68 67 65 64 64 64 65 64 65 65 65 64 64 63 63 64 64 63 62 61 61 61 62
69 72 71 74 74 68 71 69 67 67 65 63 63 63 63 62 63 63 64 64 64 64 62 63 64 62 62 61 61 60 60 62
72 70 68 67 67 70 70 68 66 68 66 67 64 63 62 64 61 61 62 62 63 63 63 62 63 61 62 61 61 60 60 61
71 73 66 66 63 67 69 68 67 68 66 62 61 59 59 61 61 59 61 62 62 62 63 63 63 62 61 62 61 61 59 59
63 61 61 60 62 70 70 69 68 66 64 63 62 62 60 62 63 59 60 61 61 62 63 63 63 63 62 61 61 61 62 58
52 52 54 56 63 69 70 68 66 65 65 63 62 60 59 59 59 59 59 59 60 62 63 63 62 62 62 62 61 61 61 60
51 53 53 52 54 65 68 67 65 65 65 63 62 60 58 59 59 58 60 60 60 61 62 62 62 62 62 62 62 61 61 61
48 50 50 50 52 55 66 66 63 64 63 63 62 61 60 60 59 58 59 60 60 61 61 61 61 62 62 62 61 61 61 60
47 48 48 50 52 57 65 64 62 63 62 62 62 61 61 60 59 60 59 59 59 59 60 61 61 61 61 62 61 61 60 60
45 46 46 48 49 53 60 64 64 62 63 62 61 61 60 59 59 59 59 60 60 59 58 59 59 60 60 60 60 60 60 60
43 43 44 46 48 50 55 60 62 63 63 63 62 62 61 61 59 59 59 59 60 59 59 58 59 59 59 59 59 60 59 59
41 41 43 44 46 47 50 53 60 60 61 61 61 61 62 62 60 59 60 59 59 59 59 58 57 58 58 58 58 58 59 58
40 40 40 41 41 44 46 48 51 59 60 61 61 62 61 61 60 61 60 59 59 59 59 58 58 57 57 58 57 58 58 57
38 38 38 38 39 41 43 45 47 55 59 59 60 60 60 60 60 60 60 60 59 59 58 58 57 57 57 57 58 58 57 59
36 36 36 37 39 38 40 43 46 49 54 56 55 54 55 55 55 55 56 55 53 52 51 51 51 51 54 56 57 57 57 57
34 34 35 36 36 38 39 40 43 46 48 49 49 49 49 49 48 48 47 46 47 47 46 45 45 45 44 48 54 56 55 48
33 33 33 33 34 36 38 38 39 44 44 43 45 46 45 43 43 42 41 41 41 41 40 41 41 41 39 40 46 46 46 44
32 32 32 33 33 35 35 37 39 39 42 43 42 41 41 41 40 39 38 37 37 37 38 38 37 37 37 38 38 39 38 38
32 32 32 33 33 34 36 37 37 37 37 39 40 40 38 38 38 36 35 35 35 35 36 37 36 36 36 36 36 36 34 34

GFSFLT1_sfc_temp_093.txt.gz
Temp
67 69 68 68 69 68 70 69 69 69 67 65 65 64 64 65 65 65 65 65 64 64 64 63 63 63 63 63 62 62 61 61
64 66 69 69 64 66 69 68 68 68 65 65 64 64 64 64 64 65 64 65 64 64 64 63 64 63 63 63 62 61 59 61
56 57 64 66 68 64 68 69 67 68 67 66 65 66 65 64 64 64 65 64 63 64 63 62 64 63 63 61 61 60 60 61
52 54 53 54 57 61 66 68 67 68 68 63 60 61 61 61 62 63 63 62 62 63 62 63 63 62 61 61 61 61 60 60
51 51 52 52 52 55 67 68 67 68 66 63 62 63 62 64 64 64 61 61 61 62 61 63 63 62 61 61 62 61 60 59
48 52 53 52 53 52 64 68 67 67 65 65 63 63 62 59 60 61 60 60 61 62 63 62 62 62 62 61 61 61 60 60
49 51 52 51 51 53 61 64 65 66 65 64 64 61 59 59 59 60 58 59 61 62 62 62 62 61 61 61 61 61 61 61
47 46 46 48 49 51 59 65 65 64 64 62 62 60 60 59 59 59 58 59 60 60 62 61 61 62 62 62 61 61 61 60
45 45 44 45 48 49 53 64 63 63 63 62 61 60 60 60 59 59 60 61 61 61 61 62 61 61 61 61 61 61 61 60
43 43 44 44 45 47 49 61 62 63 62 61 60 60 59 59 59 60 61 61 60 60 60 60 60 60 60 60 60 60 60 60
41 41 42 44 44 46 48 53 61 62 61 60 60 60 59 59 59 57 58 57 58 58 58 58 58 59 59 59 59 60 60 60
39 40 41 42 44 44 46 49 59 60 60 60 59 59 59 58 58 57 57 57 58 58 58 58 58 58 59 58 58 59 59 59
38 39 39 39 41 43 44 45 49 55 60 59 59 59 59 59 57 57 58 57 57 57 58 58 58 57 58 57 57 57 58 57
36 37 36 37 38 40 41 42 45 49 57 59 58 59 60 60 60 59 59 57 58 58 58 57 57 57 57 57 57 57 58 58
35 34 34 35 36 37 39 40 43 46 49 53 56 58 58 57 56 57 56 55 53 52 52 51 51 52 55 57 57 57 57 57
33 33 33 34 34 36 38 40 41 44 44 44 45 49 51 50 49 48 48 47 47 47 46 45 44 45 44 45 55 56 51 48
32 33 33 33 33 34 36 38 39 42 41 40 41 42 43 42 42 42 42 41 41 42 40 39 39 40 38 40 47 48 46 44
32 32 32 33 33 33 34 36 38 39 39 38 38 38 38 38 38 38 37 37 39 38 37 37 35 36 37 37 38 40 39 39
31 31 32 32 33 33 34 35 35 35 35 36 37 36 34 35 35 35 35 35 35 36 35 35 34 35 35 36 36 36 35 34

GFSFLT1_sfc_temp_096.txt.gz
Temp
57 58 58 58 62 62 66 67 67 68 68 67 67 66 66 66 65 66 66 65 64 63 63 63 63 63 62 63 62 62 62 62
55 56 56 56 54 57 62 63 66 68 68 66 65 65 66 66 66 66 66 65 65 64 63 62 63 62 62 62 62 61 60 62
54 54 54 53 52 53 55 63 66 67 69 68 66 66 66 66 66 66 66 65 65 64 63 63 62 62 62 62 62 60 61 62
50 52 52 53 51 51 53 53 66 67 68 68 62 63 62 61 63 63 64 65 64 64 64 63 62 63 62 62 61 61 59 61
49 49 50 51 52 51 52 55 58 67 68 67 65 65 63 65 63 63 63 64 63 64 64 63 63 63 62 62 62 61 60 59
45 48 49 51 52 50 53 55 58 67 67 67 64 64 64 63 64 64 63 62 63 63 62 63 63 63 63 61 61 61 61 60
47 49 49 48 49 49 51 53 60 65 68 66 63 64 59 61 62 61 62 61 62 62 62 62 63 62 61 61 61 61 60 61
45 45 44 45 46 46 48 51 56 65 66 65 63 62 60 61 62 61 61 61 61 61 61 61 61 62 62 61 61 61 61 60
43 42 42 43 44 45 46 48 51 63 64 64 63 59 59 59 60 61 61 61 61 61 61 61 62 60 61 61 61 61 60 60
41 41 41 41 42 44 45 47 50 62 62 62 60 59 59 59 59 59 61 62 61 61 61 61 61 61 61 61 60 60 60 60
39 40 40 41 42 43 45 46 49 61 61 61 60 60 59 59 59 59 60 61 61 61 60 60 60 60 60 60 60 60 60 60
37 37 39 40 41 42 42 45 47 52 60 60 59 58 58 59 59 59 59 59 59 59 59 59 58 58 58 58 59 59 59 59
37 37 38 37 38 39 40 42 45 49 52 58 58 58 59 58 58 58 57 57 56 57 58 57 58 57 58 57 57 58 58 58
35 35 35 35 36 37 39 41 43 46 50 56 58 58 58 58 58 57 57 56 55 56 56 57 58 58 57 57 57 57 57 58
34 34 34 35 36 36 37 38 41 43 44 45 47 48 58 59 59 58 58 58 56 54 53 51 51 51 53 55 57 57 57 57
33 32 33 33 33 34 36 37 39 41 41 40 40 42 43 47 52 49 49 48 48 48 47 45 45 44 43 44 52 56 54 50
32 33 32 32 32 33 35 35 37 38 39 38 39 38 39 39 41 42 42 42 41 41 40 39 39 39 38 39 47 48 46 45
31 31 31 32 32 33 32 34 36 36 35 37 38 38 36 35 35 38 38 38 38 37 36 36 35 36 37 38 38 40 39 39
31 31 32 32 32 33 33 32 33 34 34 34 35 36 35 34 32 33 34 35 35 34 34 35 34 35 36 36 36 36 36 36

GFSFLT1_sfc_temp_099.txt.gz
Temp
63 64 64 64 64 63 63 66 68 73 73 71 71 69 71 71 69 69 70 69 67 66 66 66 68 67 65 64 63 64 65 64
62 62 63 62 62 62 62 61 64 70 71 70 67 66 68 69 70 69 69 68 66 65 65 66 66 65 65 64 63 64 62 64
60 60 60 59 59 60 59 60 62 64 73 74 72 69 68 70 69 67 68 67 66 65 65 65 65 64 64 64 63 61 62 63
56 56 57 57 57 57 58 58 59 61 64 74 72 69 67 65 66 65 67 68 66 65 66 65 64 65 63 64 64 62 60 62
55 54 54 55 55 55 54 56 58 61 64 70 70 67 66 69 69 67 65 65 64 64 65 66 65 64 64 64 65 63 62 60
52 52 53 53 52 51 51 53 55 58 63 68 71 67 70 72 70 65 64 66 64 62 62 64 64 64 65 66 63 62 62 61
51 52 50 48 49 49 49 50 51 55 62 67 69 68 69 67 67 64 67 66 63 64 64 64 64 64 65 66 64 63 62 62
47 47 45 44 45 45 46 48 49 53 55 69 68 67 69 68 68 67 67 66 64 64 64 64 63 65 65 67 63 64 62 62
45 45 44 42 43 43 44 45 47 51 53 67 67 65 64 67 68 68 68 67 66 65 64 64 64 66 64 64 63 63 63 61
43 44 44 41 41 41 42 44 46 50 53 65 65 63 62 63 67 68 67 65 64 62 64 63 63 62 63 64 62 62 62 62
43 42 42 40 40 41 42 43 45 49 52 63 62 63 63 62 63 62 63 63 61 62 62 62 62 62 65 63 62 62 61 61
41 41 41 40 40 40 40 42 44 47 48 59 61 61 60 60 61 63 62 61 60 61 62 62 63 62 62 61 61 61 60 60
41 40 40 38 37 38 38 40 41 45 47 52 59 60 61 61 60 62 61 60 60 61 62 61 61 60 60 59 59 59 60 59
40 39 37 36 36 36 37 39 39 43 45 45 47 48 57 60 60 60 60 59 59 60 60 60 60 59 59 58 59 61 60 59
37 37 35 35 36 36 36 37 38 40 42 42 41 43 44 50 60 60 60 60 60 60 59 57 56 54 56 58 58 58 58 60
35 34 34 34 35 35 35 36 36 38 38 39 39 41 41 41 46 45 57 54 52 51 49 47 46 46 45 47 54 57 58 53
33 34 34 33 33 33 33 34 35 37 35 36 39 39 39 37 38 39 41 43 43 42 40 40 40 41 38 40 48 50 48 46
32 32 33 32 32 33 32 32 33 35 34 35 36 37 37 38 37 36 34 36 37 37 37 37 36 38 37 38 39 42 41 40
32 32 32 32 33 32 34 33 32 31 33 33 33 35 35 36 35 33 32 32 34 34 35 36 36 36 36 37 37 38 36 35

GFSFLT1_sfc_temp_102.txt.gz
Temp
72 73 74 74 74 73 73 74 73 73 75 79 81 81 77 80 80 80 78 75 73 73 73 72 71 69 70 69 68 67 68 68
74 73 73 72 72 70 70 70 71 72 73 76 79 78 76 78 81 80 78 76 73 72 72 70 69 69 69 68 67 65 65 67
70 70 70 69 68 68 67 68 68 69 71 73 78 80 80 78 80 79 77 74 73 72 69 68 68 68 68 68 69 63 65 66
66 66 66 66 65 65 64 65 65 66 67 70 73 78 80 75 74 73 75 74 72 71 69 67 67 68 68 69 67 65 61 63
65 64 63 62 62 62 59 60 61 62 64 66 69 73 76 78 76 72 71 70 69 69 67 67 66 67 67 68 68 68 66 61
61 61 61 62 60 57 54 54 56 56 57 58 64 69 77 80 77 70 68 67 67 68 66 67 65 66 66 67 69 70 68 64
61 61 61 60 59 56 51 50 50 52 54 56 58 66 72 78 76 68 66 65 66 67 68 68 67 66 66 65 67 70 69 66
58 58 57 56 54 53 48 46 46 49 50 53 58 66 70 73 75 70 65 65 65 66 69 66 66 66 67 66 66 69 68 65
57 56 55 54 51 51 47 43 44 46 49 52 57 70 72 75 72 69 68 68 70 72 68 68 68 68 67 66 66 70 70 67
54 55 53 52 49 48 43 42 43 45 47 50 56 72 73 69 68 68 68 74 76 73 69 66 64 64 66 65 67 69 66 63
52 52 50 50 48 48 42 42 42 43 46 49 54 67 68 69 68 68 67 73 72 70 67 66 64 64 65 66 67 66 63 63
50 50 50 49 49 47 41 40 40 41 44 47 50 63 66 66 66 65 64 66 68 65 65 62 62 63 64 63 63 66 65 62
49 49 48 47 47 45 40 39 38 40 42 45 48 50 56 61 61 62 64 63 65 66 65 62 61 63 64 64 64 64 62 60
47 48 46 46 45 42 38 37 36 37 40 43 44 44 46 49 59 61 62 65 66 66 65 63 62 66 65 62 62 61 61 61
44 44 45 45 44 42 37 35 35 35 37 40 40 43 43 43 47 54 60 63 63 64 65 63 62 61 61 61 60 60 60 63
40 41 41 43 41 40 40 36 35 37 35 35 38 40 40 41 41 42 46 53 59 59 55 53 54 54 48 51 57 60 59 59
38 40 39 39 38 37 37 37 34 35 35 35 36 36 40 40 39 38 38 39 42 46 46 47 44 41 38 39 47 55 52 51
34 36 36 37 35 36 36 34 36 33 33 34 33 34 35 36 37 37 34 35 35 37 39 39 38 38 38 39 40 47 43 42
32 33 34 35 35 35 37 37 35 34 33 32 33 32 33 34 35 34 33 33 32 32 34 36 36 36 36 37 37 39 38 37

GFSFLT1_sfc_temp_105.txt.gz
Temp
78 78 79 79 79 78 77 77 76 76 77 77 79 82 84 86 86 87 84 81 80 78 78 75 75 73 73 71 69 72 71 73
78 76 76 76 76 75 74 72 73 74 74 75 77 78 83 85 85 85 84 82 79 76 76 75 75 71 74 69 69 69 67 70
73 74 74 72 71 71 70 70 71 71 72 73 74 76 80 84 85 83 83 79 76 73 74 75 74 71 73 69 69 66 67 67
71 71 71 70 69 67 67 66 66 68 68 69 71 74 75 76 81 81 82 81 78 73 74 74 71 71 69 68 70 67 65 65
70 69 69 68 68 67 65 64 64 65 65 64 62 66 71 79 81 83 80 80 75 73 74 72 70 71 69 69 70 69 70 63
67 67 67 69 67 65 63 62 61 62 61 59 57 58 66 74 78 82 80 77 74 74 73 71 68 69 68 68 69 70 72 67
67 68 67 66 65 63 60 59 58 58 54 53 52 53 57 66 75 79 80 76 71 70 69 69 69 70 67 66 68 71 72 71
64 63 63 62 60 59 56 54 53 52 49 49 50 52 54 60 67 74 78 72 67 66 67 66 69 68 66 66 66 68 70 70
62 61 60 59 58 56 51 50 49 49 46 46 49 51 54 60 67 73 75 74 71 67 66 66 67 69 70 68 69 69 69 68
59 60 58 57 55 52 49 49 49 46 44 44 46 49 53 63 70 74 74 74 73 67 66 66 66 67 67 67 66 67 68 69
58 58 57 56 54 52 49 49 46 44 43 43 46 48 52 64 72 73 74 74 73 72 68 66 66 67 69 68 64 67 67 69
56 56 57 55 54 52 48 46 44 42 41 42 44 46 49 54 68 72 73 74 73 72 70 67 66 67 64 64 67 64 65 67
55 55 55 53 51 50 48 44 43 42 40 41 42 44 46 48 51 60 70 71 70 72 68 69 69 66 66 60 59 62 64 66
52 53 52 50 48 47 46 42 40 41 39 39 40 41 43 44 45 49 61 66 65 64 68 68 68 67 65 63 61 60 64 67
47 49 49 48 47 46 44 42 38 38 38 37 36 38 40 42 42 44 45 51 62 62 65 66 66 66 67 67 64 62 64 65
43 44 44 44 44 43 43 41 40 36 35 34 33 35 38 40 40 40 41 40 43 52 59 56 58 57 58 62 62 60 60 61
40 41 40 40 39 40 40 40 39 37 33 33 35 36 35 36 37 38 37 38 37 39 41 45 44 44 39 41 54 56 54 53
36 37 37 37 37 38 38 39 39 37 33 33 33 33 33 33 35 35 35 36 36 34 35 37 37 38 38 41 42 46 42 42
34 35 36 35 36 38 39 40 37 35 33 33 33 33 32 32 32 32 32 33 33 32 32 33 35 36 37 38 38 39 38 37

GFSFLT1_sfc_temp_108.txt.gz
Temp
76 78 76 76 75 73 72 71 69 69 70 70 71 71 71 74 78 79 78 75 74 74 75 74 74 73 73 71 70 70 68 68
76 74 73 72 70 69 68 67 66 66 67 66 67 68 70 71 77 78 77 75 75 75 74 74 72 72 72 70 67 68 65 66
73 72 71 69 68 66 65 65 64 64 65 65 65 64 66 68 70 71 76 76 74 74 73 72 72 71 70 69 67 65 66 67
70 70 68 67 65 64 64 63 62 62 63 63 64 64 65 66 67 69 72 76 75 73 73 71 69 68 66 68 67 65 64 65
69 67 66 66 63 63 62 61 61 62 60 58 56 56 56 59 63 68 72 75 75 73 72 71 69 68 66 66 67 66 66 62
65 65 65 65 63 60 59 58 58 57 57 55 52 51 54 57 60 62 66 70 74 73 71 70 68 67 67 68 66 67 65 64
65 64 63 61 60 58 56 54 53 54 54 51 49 47 49 51 53 56 61 67 70 72 70 70 70 67 66 67 65 66 65 65
61 59 58 57 56 55 53 52 51 53 51 48 47 47 47 48 50 53 56 60 65 68 69 67 67 67 66 67 66 65 65 64
58 58 56 56 55 53 51 50 48 49 48 46 46 46 47 49 50 53 55 59 65 67 67 67 66 66 67 66 66 63 62 61
56 57 56 55 53 52 49 47 46 46 45 44 43 45 46 47 49 52 56 60 65 68 67 66 66 66 66 63 61 62 63 63
55 55 54 53 52 51 49 46 44 44 44 43 43 43 46 47 49 51 58 63 68 68 66 66 65 66 65 64 65 66 65 65
53 54 54 51 51 49 47 45 42 40 41 42 42 42 43 45 46 48 49 53 68 68 67 66 65 64 64 64 65 65 63 62
51 52 51 49 47 47 45 43 41 39 39 41 40 40 41 43 43 45 48 48 54 67 67 66 65 64 64 63 62 62 62 59
48 48 46 46 45 44 43 41 40 39 38 38 38 38 38 39 41 42 45 45 48 56 65 64 63 63 62 62 62 62 61 61
44 43 43 43 42 42 42 40 40 38 37 36 36 36 37 37 39 40 41 43 43 45 54 60 62 63 63 63 61 60 59 59
41 40 39 39 39 39 41 40 38 38 36 34 34 36 37 36 36 37 38 39 40 40 42 44 46 49 49 55 61 59 59 57
38 38 38 36 36 37 39 38 37 36 35 34 35 35 35 34 34 34 34 35 36 37 36 38 39 41 38 42 54 59 57 55
34 35 35 34 34 36 36 36 37 34 33 34 34 34 33 33 33 32 31 31 33 33 34 34 34 35 37 39 42 45 42 41
33 33 34 33 34 34 35 36 35 33 33 33 33 33 33 33 33 32 30 30 29 29 30 32 33 33 35 35 36 38 36 35

GFSFLT1_sfc_temp_111.txt.gz
Temp
67 66 66 64 63 63 63 62 61 61 61 61 61 61 63 64 65 68 70 69 71 70 71 71 68 68 66 66 69 67 69 67
65 64 63 62 61 60 59 58 57 58 57 56 58 57 60 61 64 66 66 68 70 71 71 70 71 70 71 68 67 67 63 65
63 62 60 58 57 57 57 56 55 56 56 56 55 56 57 60 62 64 65 66 65 70 70 70 70 68 68 67 67 63 63 65
60 60 57 56 54 53 54 54 54 54 54 54 54 54 54 55 57 58 60 63 64 66 70 70 69 68 68 65 64 64 61 62
59 58 55 54 52 53 52 52 52 54 52 50 47 46 46 50 51 55 56 59 60 63 67 70 69 67 65 64 60 61 59 61
55 54 54 54 52 49 50 51 51 51 50 48 46 44 46 49 50 50 52 55 58 61 63 67 69 66 65 61 60 62 65 63
55 56 55 51 49 47 47 48 49 49 48 47 45 44 45 45 46 47 50 52 53 57 61 64 68 68 65 64 63 64 63 64
52 52 51 50 47 46 49 46 44 46 46 46 45 43 45 44 46 47 48 50 51 54 58 61 64 67 67 65 64 64 64 63
51 50 48 47 48 46 44 43 41 42 44 44 44 44 44 45 46 48 48 49 53 55 56 61 61 63 65 65 64 63 61 63
50 49 47 47 46 45 43 43 40 40 41 41 42 43 43 43 44 46 48 51 53 56 55 59 59 60 62 65 66 61 60 58
49 47 46 46 45 44 42 41 42 40 40 40 41 41 42 42 43 45 46 48 50 52 58 59 61 60 63 65 64 62 61 61
46 45 44 44 43 42 42 40 40 38 38 39 39 39 40 41 41 43 43 45 48 50 53 62 64 65 65 63 62 61 61 60
43 42 42 41 40 41 41 40 39 39 39 38 38 39 39 39 39 41 42 43 45 47 51 57 64 65 66 62 61 62 62 61
39 39 38 38 39 39 39 39 38 38 38 37 37 37 37 37 37 38 39 40 42 43 46 48 53 63 64 63 63 63 63 62
38 36 37 37 38 38 38 37 37 36 36 36 35 36 36 36 36 36 36 38 38 40 41 43 45 45 47 51 61 60 58 58
36 36 35 35 36 36 37 36 36 36 35 35 34 36 36 36 35 34 34 34 35 37 38 39 39 39 39 41 47 58 56 55
34 35 34 34 34 34 34 34 34 35 34 33 34 35 35 35 35 33 32 32 32 33 34 35 35 37 37 37 41 57 55 52
32 32 31 32 31 33 32 32 34 34 33 33 34 34 34 33 34 34 32 30 31 30 31 32 32 34 36 35 36 41 44 43
30 30 31 31 32 33 33 33 33 32 32 32 33 32 32 33 33 32 32 32 30 29 29 30 31 32 34 34 33 33 33 33

GFSFLT1_sfc_temp_114.txt.gz
Temp
61 59 59 59 58 58 57 57 56 57 56 56 56 56 57 59 59 61 62 61 65 67 69 69 67 66 66 67 68 68 67 67
59 58 58 57 56 55 55 53 53 53 53 52 53 52 53 55 57 60 60 60 61 62 67 67 67 67 68 66 66 64 64 65
56 54 53 52 52 52 52 51 51 51 51 50 49 50 50 53 55 55 57 57 57 59 59 64 68 67 66 64 66 65 65 64
53 52 50 49 48 49 49 49 49 50 50 49 48 48 49 49 50 50 53 54 55 55 57 59 60 66 67 66 64 65 65 62
52 49 47 47 46 48 48 50 49 50 48 46 44 42 42 45 46 49 50 52 53 54 55 57 59 61 65 66 64 63 60 57
49 48 47 46 46 45 47 46 46 47 46 45 43 42 43 44 47 48 49 50 52 52 53 54 56 58 62 66 62 58 59 57
49 49 48 46 45 45 45 44 42 44 45 43 45 43 43 43 44 46 48 50 51 53 54 53 55 58 61 64 63 62 59 59
46 45 44 44 44 43 45 42 41 40 41 41 43 44 43 43 43 44 45 46 47 50 52 53 54 55 59 63 61 60 60 60
44 44 44 43 43 42 40 41 40 40 40 40 42 43 42 42 42 43 44 46 48 49 50 53 53 55 57 61 63 61 60 61
42 43 42 42 42 40 39 39 40 39 38 39 40 41 41 40 41 43 44 45 47 47 48 49 52 55 56 59 61 60 61 62
40 41 41 41 41 41 40 40 38 39 39 39 39 39 40 41 41 40 41 43 44 44 46 48 51 55 56 57 59 62 62 61
39 39 40 40 40 40 39 37 37 37 38 38 38 38 39 39 39 39 39 40 42 43 44 46 50 52 58 57 59 61 61 61
38 38 38 38 38 39 38 35 35 36 38 37 37 38 38 37 37 37 38 38 40 41 43 44 46 47 51 60 59 62 60 60
36 37 35 36 37 37 36 34 34 36 37 37 36 36 36 36 36 36 36 36 37 38 40 41 41 43 44 48 58 60 60 60
35 34 35 35 36 35 35 34 35 35 36 35 35 35 36 36 36 35 35 35 35 35 37 38 38 40 40 41 46 53 58 61
34 32 33 33 34 33 34 34 35 35 34 34 34 35 36 36 35 35 35 34 34 34 34 35 35 38 38 37 44 49 51 58
32 32 32 32 33 33 33 33 33 34 33 33 33 34 34 34 34 34 33 33 33 33 32 33 33 35 36 36 39 38 37 43
30 31 31 32 31 32 32 33 33 32 32 32 33 32 31 31 32 33 31 30 30 30 30 31 32 33 35 35 35 34 34 33
30 30 31 32 32 33 33 33 32 32 30 30 31 30 30 30 30 30 29 30 29 28 28 30 31 32 33 34 34 34 32 31

GFSFLT1_sfc_temp_117.txt.gz
Temp
55 55 54 53 52 53 53 52 51 51 51 51 52 52 52 53 54 56 57 57 59 58 60 63 66 65 66 67 67 67 67 66
53 53 51 50 50 50 50 49 49 50 48 46 46 46 48 50 52 53 54 54 55 55 56 57 60 65 65 64 65 66 66 65
51 49 47 47 46 47 48 47 47 47 47 46 45 44 46 48 49 50 51 51 51 53 52 54 56 57 61 65 65 63 63 64
48 47 46 45 45 46 46 46 46 46 46 46 44 45 45 45 45 47 49 50 51 51 51 52 53 54 55 59 64 64 63 61
46 44 45 45 44 45 44 44 44 46 46 43 40 39 40 42 43 46 48 50 50 51 51 51 51 53 54 56 61 64 64 59
44 43 44 45 44 43 42 42 42 42 42 42 42 42 44 45 46 45 46 49 51 52 52 53 52 52 53 54 56 62 64 63
44 45 44 42 43 43 42 41 41 42 41 41 41 42 42 42 43 43 45 46 48 50 51 51 52 52 53 54 56 59 63 61
39 41 41 40 40 40 42 40 38 39 39 39 42 42 42 41 41 41 42 43 45 47 48 48 49 51 53 54 54 56 62 61
37 37 39 41 40 39 39 39 38 38 38 39 40 41 41 41 41 41 42 42 43 45 46 46 47 49 51 52 54 55 59 61
34 34 36 39 39 39 38 38 37 38 38 39 39 40 39 39 40 41 41 42 43 44 44 45 46 47 49 52 54 55 58 61
35 34 35 37 39 39 38 37 36 37 38 38 38 39 39 39 39 38 38 39 40 41 42 43 44 46 49 50 52 56 56 60
34 34 36 37 38 37 35 35 36 36 38 38 37 38 38 38 37 37 37 37 38 38 40 41 42 42 45 45 46 56 55 58
34 34 36 37 37 35 34 34 34 36 37 37 37 37 37 37 36 36 36 36 37 37 38 39 39 40 41 42 42 45 56 57
35 35 35 34 35 33 33 34 34 36 37 36 36 36 36 36 36 36 36 35 36 36 37 36 37 38 39 39 40 43 47 58
34 33 33 34 34 33 33 34 34 35 35 34 33 34 34 35 35 34 34 34 34 34 35 36 36 37 37 37 38 43 48 53
32 31 32 33 33 33 33 34 33 34 33 33 32 33 33 34 34 33 32 32 33 33 33 34 35 35 35 35 37 39 40 41
31 31 32 32 32 31 32 32 31 32 31 31 32 32 31 31 31 30 31 30 30 31 31 32 33 35 35 35 35 35 36 36
30 31 31 31 31 32 31 31 33 32 31 31 30 28 28 28 29 29 28 28 28 27 28 29 30 32 34 34 34 33 32 33
30 30 31 31 32 33 33 33 31 31 30 29 30 28 26 26 25 25 25 25 25 25 26 27 28 31 34 33 32 31 31 31

GFSFLT1_sfc_temp_120.txt.gz
Temp
49 49 49 49 48 49 49 49 49 49 49 50 49 49 50 50 51 52 53 53 54 53 55 56 57 61 65 65 65 65 65 66
47 47 46 46 47 47 47 46 46 47 46 45 46 45 47 47 49 49 50 50 51 50 51 52 54 55 57 62 64 62 62 66
46 45 44 43 43 44 44 44 45 45 45 45 44 44 46 46 46 47 48 49 49 50 48 49 51 52 53 55 61 63 63 65
44 45 43 43 42 43 43 43 43 45 45 45 45 43 44 44 44 45 47 49 49 49 49 49 50 51 51 53 55 58 62 62
44 42 42 41 43 44 43 44 43 44 43 43 42 40 41 44 44 44 46 48 48 49 51 52 52 52 52 52 54 55 58 61
39 40 41 41 41 41 42 43 41 42 41 42 41 40 42 44 44 44 44 45 48 49 50 50 50 51 52 53 53 54 54 57
39 40 40 40 41 40 41 41 41 40 40 41 40 40 41 41 42 42 43 45 46 47 48 47 48 49 50 52 54 54 54 56
37 37 37 38 39 38 39 38 37 40 40 40 40 40 40 40 40 40 41 41 42 43 45 45 45 47 48 49 50 51 53 54
35 35 35 36 38 38 37 37 37 38 39 39 40 40 40 39 40 40 40 40 40 42 43 44 45 46 47 48 49 51 53 54
35 35 36 36 36 37 35 36 37 38 38 39 39 39 39 38 38 39 38 39 40 40 41 41 43 44 45 46 47 49 51 54
36 35 36 36 37 36 35 36 36 37 38 38 38 38 38 38 38 36 37 38 38 38 39 40 41 42 43 43 44 46 47 50
34 34 35 36 36 35 34 35 35 36 37 38 37 37 38 38 37 37 37 37 37 37 38 39 39 39 40 40 41 43 43 46
33 34 35 35 34 34 34 35 35 35 37 36 36 36 37 36 35 35 35 35 37 37 37 38 38 38 38 38 38 39 41 43
31 33 33 34 34 34 34 34 34 35 36 35 34 34 34 34 34 34 34 34 35 35 36 36 37 37 37 37 38 39 40 43
31 33 33 33 34 33 33 33 33 34 34 33 32 32 32 33 33 33 32 33 32 33 34 35 36 36 36 36 37 37 37 39
30 31 32 32 33 31 33 31 31 31 31 30 29 31 31 31 31 30 31 30 30 31 31 33 34 35 35 34 35 35 35 35
31 32 32 31 32 32 31 31 31 31 30 29 29 29 29 28 28 28 27 27 28 29 29 30 31 34 34 35 34 33 33 33
30 30 30 31 31 31 31 30 31 31 30 30 29 28 27 26 26 25 24 24 25 27 28 28 29 31 34 34 34 32 31 30
29 29 30 30 30 32 31 31 31 30 29 28 28 27 26 25 24 22 22 22 22 24 26 27 27 29 34 33 32 30 30 29

GFSFLT1_sfc_temp_123.txt.gz
Temp
50 51 52 52 52 51 50 50 49 51 56 59 61 61 60 60 60 60 59 59 60 61 64 63 63 64 65 65 65 67 68 69
51 51 51 51 51 50 49 47 48 49 52 52 56 56 57 57 57 57 57 57 57 59 60 60 61 62 63 64 64 63 65 67
47 47 48 48 48 48 48 47 47 47 50 51 52 52 56 55 55 55 55 56 56 57 57 57 57 57 60 61 63 63 65 65
43 44 44 44 44 45 45 44 45 45 47 51 52 53 53 53 53 53 53 54 54 54 54 54 54 54 53 54 58 61 62 64
42 43 43 44 43 45 46 44 43 44 45 46 47 43 43 47 49 51 52 52 52 52 52 52 52 53 53 54 56 55 58 60
40 42 43 45 44 45 42 46 43 43 43 45 43 42 43 45 47 47 48 50 50 49 49 49 49 50 51 51 53 54 56 56
41 42 42 41 42 42 45 43 42 42 42 42 40 40 41 41 42 42 43 46 47 47 47 47 47 48 48 49 50 51 53 55
39 38 39 40 40 40 40 39 38 41 43 42 41 41 41 40 39 40 41 42 42 43 44 44 45 46 47 48 49 50 51 52
37 38 38 38 39 40 40 40 40 41 41 40 41 42 41 40 40 40 40 40 41 43 42 43 43 44 45 46 47 48 50 51
37 38 38 38 39 38 38 38 39 39 40 40 40 40 40 39 40 40 40 41 41 41 41 41 42 43 43 44 44 46 47 47
37 38 38 39 39 39 38 38 38 38 39 39 39 39 39 39 39 37 38 39 39 39 40 40 41 41 41 41 42 43 44 45
37 38 39 40 39 38 37 37 37 37 38 38 37 37 38 38 37 37 37 38 38 38 38 39 39 39 40 39 40 42 42 44
37 38 39 38 37 37 37 36 36 36 37 37 36 37 37 36 36 36 36 35 36 36 37 37 38 38 39 38 39 40 39 40
37 37 36 36 36 36 36 35 35 36 36 35 35 35 35 35 35 36 36 35 35 35 35 35 36 36 37 38 38 37 38 38
36 35 35 36 36 35 34 34 35 36 36 34 33 34 34 34 36 35 35 35 34 34 34 34 35 36 36 37 38 37 37 37
34 34 34 34 34 34 35 35 36 36 34 33 32 34 34 34 33 34 34 34 34 34 33 33 34 34 34 35 36 36 36 35
33 33 33 33 34 34 34 34 35 36 34 33 33 33 32 31 32 32 33 32 33 33 32 32 32 34 34 34 34 34 35 34
32 32 33 33 33 35 33 34 36 34 33 32 31 30 29 29 30 30 29 29 29 29 30 30 31 33 34 33 33 33 32 32
32 31 32 33 33 34 35 35 34 33 31 30 30 29 28 28 27 27 27 28 27 27 27 28 29 31 33 32 31 31 31 31